GFSWCAN_850_spd_000.txt.gz
Wind_Speed
29 30 30 30 29 27 28 28 25 23 23 24 23 24 24 22 15 19 4 13 9 4 5 9 13 7 4 4 2 1 3 2 3 3 2 3 4 5 2 3 4 5 4 3 3 1 5 1 2 1 3 2 5 15
28 31 31 30 28 27 25 27 23 24 23 25 22 25 24 23 14 15 2 9 11 4 2 8 15 16 16 10 3 5 3 3 7 3 3 3 2 2 3 3 2 3 5 5 7 5 2 1 0 2 4 7 10 22
30 33 33 32 28 25 24 24 23 23 22 24 21 24 22 22 12 14 7 9 10 3 5 12 13 15 19 18 12 5 5 5 4 3 4 2 3 3 4 4 2 3 2 2 2 1 1 2 6 4 10 10 17 24
33 34 31 29 28 26 23 22 23 22 20 23 20 22 22 23 13 10 10 12 14 4 2 4 7 7 6 11 11 9 10 6 7 3 2 2 3 3 3 2 3 4 6 4 3 1 2 4 6 10 13 18 21 22
33 32 31 28 25 24 23 20 21 21 20 22 19 20 22 23 15 13 15 15 16 4 1 2 2 5 5 10 9 9 15 7 3 2 2 3 2 3 1 1 3 5 6 5 5 9 6 6 17 18 22 25 25 28
31 30 29 27 24 22 21 20 21 21 22 21 19 18 21 24 13 9 5 16 18 16 4 1 1 4 6 8 9 5 3 7 4 3 3 3 3 2 2 2 5 14 12 14 4 9 7 12 22 24 26 27 27 29
28 27 27 24 22 20 20 20 20 21 23 22 21 21 24 21 15 10 3 4 19 16 3 1 1 3 5 6 4 4 4 3 1 3 2 2 1 4 2 3 4 9 13 10 11 17 14 22 15 26 27 28 29 28
26 25 22 22 21 22 21 21 22 23 23 25 27 29 24 13 15 15 8 7 24 15 4 2 1 2 9 5 4 5 3 2 3 3 0 1 2 2 3 7 3 10 15 20 19 7 15 20 30 30 30 32 31 29
23 23 23 22 21 21 20 22 23 23 26 28 28 13 4 9 9 14 15 8 28 7 3 3 4 3 8 2 2 4 2 2 1 1 1 1 2 4 7 6 15 20 12 18 12 15 24 33 35 34 35 33 33 30
21 22 23 23 23 24 24 22 24 26 27 24 6 2 5 6 11 18 11 13 10 8 5 2 7 2 5 2 0 1 1 1 1 1 3 2 3 17 14 9 13 23 15 23 26 20 28 33 36 36 35 32 29 29
21 22 22 24 26 25 23 23 25 26 23 17 12 5 9 17 15 10 5 5 6 3 8 7 6 4 6 2 2 1 1 1 1 2 1 2 4 5 21 23 13 24 20 21 16 19 27 36 42 38 33 30 28 26
21 21 21 23 23 26 24 23 24 23 19 19 18 23 11 4 3 4 3 2 4 6 7 5 7 7 6 4 3 1 2 1 2 1 0 3 4 7 5 11 19 27 25 21 13 20 26 34 36 35 31 29 26 24
21 21 22 23 21 26 27 26 24 23 20 15 3 4 4 3 3 6 6 4 4 3 11 10 4 7 5 3 3 2 2 2 1 0 4 5 1 2 5 13 22 27 25 20 19 25 29 35 33 32 32 28 26 24
21 21 22 21 24 29 32 30 27 17 6 3 3 4 4 4 4 3 1 4 6 9 17 18 5 3 4 3 3 4 1 2 1 3 6 3 5 9 10 17 27 27 24 23 26 30 35 37 35 32 29 28 26 24
21 21 20 21 28 30 34 35 18 4 4 4 4 4 4 3 2 1 4 1 5 19 28 10 7 4 2 3 2 3 2 3 5 5 3 3 10 15 17 23 27 29 27 28 32 37 38 37 35 32 27 24 22 21
21 22 18 26 28 31 34 24 5 5 3 4 5 3 6 3 2 0 2 2 12 24 23 5 3 3 2 5 3 6 7 6 4 3 5 7 16 18 22 25 27 28 30 35 39 41 40 37 35 32 27 22 20 18
20 19 24 27 30 32 28 8 2 3 4 3 2 6 8 8 5 3 7 8 20 19 4 3 5 6 3 3 2 4 6 3 3 4 8 13 19 22 24 26 28 30 35 40 42 40 39 36 33 30 28 24 21 19
19 21 23 25 31 29 13 5 3 2 3 3 3 8 14 9 7 4 6 10 13 7 7 5 8 3 5 7 4 4 8 3 3 6 11 15 18 22 25 29 31 34 39 41 41 39 36 33 30 28 27 25 22 21
19 22 22 24 25 17 5 4 4 3 3 5 8 10 9 11 9 8 8 10 14 5 7 4 3 4 4 4 3 2 9 11 8 10 14 16 19 24 28 30 33 37 40 40 39 36 32 29 27 27 26 24 22 21
16 17 20 22 18 3 3 3 5 4 2 5 8 8 13 10 11 8 9 14 14 6 3 3 4 3 2 2 5 4 9 12 17 21 18 19 22 25 29 33 38 40 41 39 35 32 30 28 26 24 22 20 20 20
16 17 22 18 5 3 3 4 4 3 6 6 8 14 8 8 6 5 5 11 10 3 1 2 4 5 5 5 6 7 11 15 21 20 29 28 26 30 33 37 42 41 40 38 36 31 29 28 27 24 22 20 18 17
16 19 15 7 1 3 4 2 6 10 5 6 8 10 5 2 4 4 6 3 1 1 1 1 6 8 8 7 8 10 13 17 16 16 26 30 33 35 39 43 44 42 39 36 33 33 30 27 25 23 21 21 18 15
14 11 5 2 2 2 2 7 3 2 1 4 10 3 2 3 5 7 1 4 3 4 4 4 8 9 10 12 14 16 15 17 19 22 29 31 34 36 42 42 40 38 37 33 30 29 28 26 23 22 21 20 18 16
12 3 3 1 1 3 6 3 4 4 5 4 3 4 3 2 7 2 1 4 9 9 4 6 10 12 13 16 19 20 19 18 21 27 30 36 39 39 39 38 36 34 32 33 31 29 27 26 23 21 19 17 15 13
3 3 1 3 1 3 4 6 5 3 2 3 2 4 3 4 1 1 2 4 11 11 6 1 8 11 16 17 16 16 16 20 28 35 32 37 40 37 35 33 30 30 29 31 30 28 26 24 22 20 17 14 13 11
1 3 2 4 2 2 3 1 1 3 2 3 3 5 4 2 1 2 2 9 8 9 9 4 1 8 15 18 20 20 21 23 30 35 35 36 36 35 34 33 32 30 26 22 24 25 25 23 21 19 17 15 11 9
3 4 3 3 2 2 1 2 1 1 2 2 3 4 3 3 2 1 5 7 6 9 6 2 6 12 16 19 20 22 25 32 38 39 39 36 33 31 32 33 30 29 26 22 20 19 20 21 19 17 14 13 11 8
5 6 4 5 2 2 3 0 1 2 3 3 4 2 3 2 2 6 4 7 7 4 3 4 8 13 19 23 25 28 31 34 34 32 32 32 29 26 23 22 24 27 25 22 20 19 17 16 16 15 13 11 8 6
4 4 6 1 1 2 5 5 4 3 2 1 1 2 2 3 8 8 7 6 2 2 7 12 17 21 25 28 32 35 37 37 40 40 37 34 30 27 27 28 28 28 26 25 21 18 16 15 15 13 12 9 6 4
6 8 4 2 4 4 3 5 3 1 1 1 2 2 3 4 5 5 4 1 3 8 14 19 22 25 28 31 33 31 30 30 29 30 32 32 30 30 27 25 25 24 23 22 22 21 19 16 14 12 9 6 3 1
8 10 3 3 3 2 4 6 5 2 2 1 1 2 2 1 4 6 2 4 8 10 14 18 21 24 26 25 24 24 21 17 15 18 24 28 31 28 26 24 22 21 19 18 18 18 17 15 12 9 6 3 1 2
8 8 5 2 2 5 6 4 4 3 3 2 2 2 1 1 2 2 2 6 10 13 16 20 22 22 21 21 19 16 19 22 21 23 25 27 28 27 25 23 22 21 20 19 17 15 13 10 8 6 3 1 1 1
5 5 3 4 3 2 6 5 1 0 0 1 1 2 1 0 1 3 5 8 11 17 20 21 21 21 18 15 16 17 18 21 24 23 22 23 23 23 22 21 20 18 17 16 14 12 10 8 6 3 2 1 1 1

GFSWCAN_850_spd_003.txt.gz
Wind_Speed
28 29 31 31 30 28 26 25 24 24 23 21 22 20 22 21 18 19 4 8 4 3 7 9 9 7 6 6 3 3 3 4 4 5 3 3 4 5 1 2 3 5 3 3 2 1 3 1 3 6 3 0 8 16
29 30 31 30 29 25 25 23 21 22 22 21 23 20 22 19 17 16 12 5 8 3 2 11 12 13 14 9 9 8 3 1 4 3 3 2 2 3 4 3 1 3 5 4 6 4 3 4 3 2 2 5 6 18
29 29 29 29 28 24 21 23 20 20 21 21 21 20 21 18 17 16 11 2 6 3 5 8 13 13 16 14 15 5 5 6 5 2 2 2 4 3 4 4 3 3 3 1 2 2 2 2 1 3 4 7 10 20
27 28 26 28 26 25 22 20 20 20 20 20 21 20 19 16 18 17 10 7 4 3 2 4 7 8 9 11 15 17 14 7 12 7 3 3 3 3 3 2 3 4 3 4 3 3 3 5 4 8 12 15 22 23
26 24 25 25 25 23 20 20 19 20 19 20 21 20 18 16 20 15 14 14 15 3 1 2 3 6 6 7 10 10 11 10 6 3 3 3 3 3 1 1 3 5 6 4 5 6 4 4 13 13 19 22 22 26
23 23 24 23 23 23 23 22 20 20 21 23 21 21 17 16 19 8 2 15 17 7 4 2 2 3 5 7 10 8 4 7 5 5 2 3 1 2 2 3 5 13 11 8 2 5 4 12 17 17 21 22 24 27
21 21 23 23 22 23 23 23 23 23 24 24 24 23 20 19 15 11 6 12 18 16 3 2 2 2 4 4 4 4 5 5 6 3 1 1 3 4 1 3 5 4 12 9 7 12 11 18 12 19 23 25 27 30
20 20 21 22 22 23 24 25 25 26 27 27 25 25 24 16 12 15 11 4 20 9 3 1 2 1 7 4 3 4 2 2 1 3 2 0 2 1 4 7 7 4 9 12 15 6 6 17 25 26 26 29 31 30
19 19 20 22 22 24 25 26 26 29 30 27 22 12 1 5 6 7 9 4 25 7 3 3 3 2 7 1 2 3 2 2 3 1 1 0 1 4 7 7 13 15 12 14 10 11 19 27 31 31 31 32 33 31
19 20 21 21 22 24 26 26 26 28 32 22 10 3 3 6 11 8 6 10 7 6 6 2 4 2 4 2 0 0 0 1 1 0 1 2 3 17 16 9 7 17 15 21 22 17 24 30 33 34 34 33 31 30
20 20 21 22 22 23 26 25 26 29 29 19 11 5 14 9 11 6 2 3 5 2 7 7 6 4 7 2 2 1 1 0 1 2 1 2 4 5 16 23 11 19 19 22 14 14 23 32 40 38 35 31 29 27
20 20 20 22 23 21 26 26 27 27 23 21 18 19 9 2 2 2 3 1 4 6 6 4 6 7 6 4 2 0 1 0 3 2 1 3 4 4 1 11 21 21 24 20 10 15 24 31 34 35 34 32 29 26
19 19 19 21 22 22 27 31 28 27 16 8 1 2 3 3 3 6 7 4 4 4 9 8 3 8 5 3 3 2 2 3 1 0 4 4 4 4 5 8 19 23 24 19 17 21 25 33 33 33 33 29 27 25
18 18 18 18 20 25 29 33 34 12 3 1 1 4 2 2 3 2 2 2 1 10 21 21 6 3 4 3 2 3 1 1 1 2 5 3 6 7 7 12 22 28 26 22 23 26 30 36 36 33 31 29 27 26
18 17 15 17 23 26 30 33 23 1 2 2 2 3 3 4 5 7 9 6 3 15 26 9 5 4 2 3 2 3 1 4 5 4 3 5 5 9 11 16 23 27 26 25 27 31 36 37 36 34 29 27 25 24
17 17 14 22 24 27 31 25 7 1 2 2 4 3 5 5 2 4 4 5 3 14 18 5 3 3 3 4 3 7 7 6 4 3 4 4 7 10 13 17 23 25 25 26 30 35 38 37 36 34 30 26 23 21
15 12 19 23 26 29 25 8 4 1 3 3 2 4 7 9 6 5 5 5 8 11 3 3 5 7 3 3 2 4 5 3 2 1 2 6 9 12 15 19 22 24 26 29 34 38 39 36 34 33 31 26 23 21
14 16 19 21 25 27 10 6 4 2 3 4 3 4 9 12 12 8 6 6 5 5 5 3 7 2 5 6 4 4 9 4 1 3 5 8 11 14 18 22 23 25 29 33 37 38 37 37 34 32 29 27 25 23
14 17 18 18 23 16 4 4 4 2 4 5 9 9 7 12 15 12 12 11 12 9 3 3 3 4 4 3 4 3 7 9 6 6 7 10 13 17 21 23 25 28 32 36 39 40 37 33 31 30 28 27 24 23
13 14 13 18 17 4 1 1 3 2 3 5 10 9 14 11 13 14 13 12 11 5 4 3 4 3 3 3 5 4 4 10 11 12 11 13 15 19 23 26 28 32 37 40 39 37 34 31 27 26 24 23 22 22
12 9 14 14 6 1 2 2 2 2 6 6 8 13 10 11 8 4 5 5 6 4 2 1 1 2 3 2 3 2 5 9 13 10 16 22 21 22 26 27 30 36 41 41 39 34 31 30 29 27 25 22 20 19
9 12 11 7 3 2 3 3 4 7 4 6 9 9 6 4 5 4 9 3 3 3 3 4 5 6 5 5 4 3 6 9 11 11 16 24 29 29 30 33 38 41 41 40 37 35 31 30 28 25 24 23 21 19
8 8 4 3 2 2 2 3 2 1 1 4 11 4 3 3 4 10 2 2 2 8 11 10 8 7 9 8 8 8 10 11 12 13 20 26 29 30 32 36 40 43 42 38 34 33 32 29 27 25 23 22 22 20
8 4 3 2 2 3 2 0 2 3 3 3 2 5 4 3 8 2 2 2 5 9 8 6 5 6 6 8 10 12 13 14 14 17 22 28 31 33 36 39 40 40 38 37 34 33 31 29 27 25 24 22 20 17
2 3 3 3 2 2 4 5 5 3 2 2 2 4 3 5 2 2 1 4 12 12 12 9 4 5 7 10 11 13 14 15 18 22 24 29 35 37 36 37 36 35 34 34 34 32 31 28 26 24 22 19 18 16
1 4 3 5 2 3 4 1 2 4 1 2 4 5 5 2 2 4 1 7 9 13 15 15 12 6 5 9 12 14 16 18 19 25 25 29 34 41 43 43 40 35 34 32 32 31 30 27 26 24 22 19 15 12
3 4 4 5 3 4 1 1 0 2 1 3 3 3 3 3 4 2 5 8 11 15 15 13 10 8 9 12 14 15 15 17 21 24 25 27 30 32 33 34 33 31 29 27 24 23 25 26 25 23 20 18 14 12
6 7 5 7 4 4 4 1 3 5 3 3 0 2 3 3 3 4 6 16 16 16 13 11 9 9 11 14 15 16 18 18 20 25 30 32 32 32 30 29 30 32 30 27 24 22 21 21 21 19 17 14 12 10
5 5 8 2 2 2 6 6 4 5 4 4 3 3 3 4 7 15 18 15 12 11 9 8 6 8 12 15 16 17 21 27 35 38 39 35 33 31 31 33 32 31 29 27 23 20 19 19 18 17 15 12 10 7
7 11 4 2 5 5 3 7 3 4 4 4 4 5 7 8 10 12 11 10 9 6 5 4 8 12 17 21 26 28 29 30 32 36 40 38 36 34 32 33 31 31 30 29 29 28 24 21 19 16 13 10 7 5
11 11 3 4 3 3 5 8 6 4 5 4 6 6 6 6 7 8 8 7 4 2 1 5 10 15 21 23 23 25 27 24 27 31 33 33 34 33 31 29 28 28 27 24 22 22 21 19 15 13 10 7 5 3
9 8 5 2 2 4 6 5 4 3 3 4 4 4 3 3 3 3 4 2 1 3 5 9 15 18 17 18 17 19 21 23 26 26 28 30 30 29 28 27 25 24 24 22 21 20 17 14 12 10 7 5 3 2
6 5 3 4 2 2 6 4 1 2 3 3 3 3 3 2 3 1 2 4 6 10 12 13 15 15 16 18 21 23 22 22 23 25 27 27 28 28 27 26 24 23 21 20 18 16 14 12 10 8 5 3 2 2

GFSWCAN_850_spd_006.txt.gz
Wind_Speed
24 25 27 29 27 28 24 22 23 20 21 22 23 23 20 21 19 19 5 8 4 3 10 8 15 12 8 9 3 4 0 4 2 4 4 3 3 4 2 4 4 6 4 3 0 2 3 3 4 3 3 5 4 8
23 24 27 26 26 25 25 23 21 22 20 21 21 21 21 19 18 19 10 5 6 3 3 11 11 11 13 8 10 8 2 1 5 3 2 2 3 2 3 3 1 3 5 3 6 4 3 2 5 8 9 7 2 9
21 24 25 25 24 24 22 21 20 20 20 20 20 22 22 19 16 17 15 7 5 0 4 5 10 14 14 14 14 6 5 6 5 5 2 2 3 4 4 5 2 3 4 2 3 2 3 3 2 5 5 2 5 10
20 22 21 23 23 23 22 22 22 21 20 20 21 22 21 20 16 17 16 4 2 3 2 3 6 9 13 15 16 17 14 8 8 9 3 2 2 3 3 2 3 4 2 2 4 6 7 6 3 2 7 10 18 21
20 22 20 21 21 22 22 21 21 21 22 22 23 23 21 19 18 19 11 10 8 3 1 1 3 5 6 8 12 16 16 13 6 3 3 3 2 3 1 1 3 5 6 4 4 4 2 1 7 9 14 17 19 24
19 22 19 19 19 21 23 23 23 24 24 24 24 24 21 17 16 14 1 9 13 10 3 1 1 3 4 6 10 11 8 7 5 3 4 4 3 4 3 3 5 14 9 7 2 2 2 8 12 12 15 17 19 23
20 21 19 21 21 20 23 25 25 26 27 26 26 26 23 16 15 12 6 11 17 13 2 2 2 1 4 5 5 8 9 6 8 4 4 2 3 3 1 4 5 5 10 11 7 10 7 13 8 15 17 19 21 24
21 21 19 21 21 22 23 25 27 28 27 29 29 24 17 13 14 17 14 8 9 8 4 1 2 1 7 4 4 5 4 3 5 3 3 1 1 2 4 8 12 8 9 12 16 8 5 14 20 21 21 24 27 28
21 21 19 21 21 22 24 25 27 29 33 30 23 7 2 5 6 3 5 4 16 5 3 3 3 3 6 2 4 3 3 2 2 2 2 1 2 4 8 7 11 16 12 15 14 9 14 21 26 27 28 29 32 31
22 21 19 20 21 22 23 24 28 30 32 22 9 3 1 2 8 10 6 7 8 6 5 2 5 3 5 3 1 0 1 1 2 0 2 2 4 20 21 12 6 11 14 18 21 15 20 26 30 30 31 31 31 31
21 22 18 19 20 22 23 25 27 30 28 15 11 4 16 5 9 4 3 3 4 2 6 7 10 4 8 2 2 2 1 0 1 3 1 2 4 4 9 22 16 11 17 17 12 11 19 25 34 34 32 31 30 28
21 19 17 18 20 20 23 26 28 29 21 14 14 13 7 2 3 3 3 1 3 4 4 3 5 5 6 3 2 1 2 0 3 3 1 3 4 6 5 4 18 15 19 17 10 9 18 25 32 33 33 33 30 27
19 17 16 17 17 20 26 28 30 25 6 4 1 3 2 3 2 1 2 1 1 0 7 6 2 5 5 3 3 2 1 3 1 1 3 4 4 7 3 2 14 16 19 17 12 14 19 28 30 32 33 30 28 26
17 15 15 16 17 23 27 29 27 8 2 3 3 4 0 3 2 2 1 2 4 5 9 13 4 3 3 3 1 3 1 1 2 2 5 3 3 5 4 5 13 20 21 18 17 20 24 30 32 31 30 29 28 27
17 14 14 13 20 23 27 28 13 3 1 1 2 2 2 5 6 8 9 5 5 6 6 4 5 3 1 3 1 2 1 4 5 4 3 5 7 0 3 7 13 20 21 19 19 24 29 32 34 33 30 27 25 26
17 14 9 17 22 25 29 19 5 3 1 1 1 3 6 3 5 8 8 9 7 4 8 3 3 2 3 4 3 7 6 6 4 3 6 7 3 2 5 9 14 19 20 20 22 25 31 34 35 34 30 27 25 23
14 7 14 17 20 25 21 5 3 3 3 2 0 2 2 5 6 7 10 7 10 7 2 1 4 6 2 2 2 4 6 3 4 4 5 4 3 4 8 12 17 20 21 22 25 30 34 34 33 32 32 28 25 22
14 11 15 16 19 23 10 4 2 2 2 3 3 2 7 9 9 11 9 9 7 5 2 2 3 2 5 6 4 4 10 4 2 3 4 3 5 7 10 15 18 20 22 25 29 33 35 36 35 33 31 30 27 24
13 14 14 14 17 14 3 2 1 0 3 5 8 7 7 10 16 16 15 15 13 13 11 3 4 4 4 4 4 3 5 8 7 7 5 6 8 10 14 16 19 21 24 27 33 37 38 35 34 33 31 30 28 26
13 14 12 10 13 5 2 3 3 2 2 2 6 7 10 11 12 15 16 15 14 5 4 3 3 2 3 3 3 3 3 8 10 10 8 10 11 12 15 17 20 22 26 32 36 38 37 35 32 30 28 27 26 25
12 7 8 10 7 5 3 2 3 2 3 4 5 9 9 9 6 6 7 8 6 5 2 2 6 8 9 7 5 5 4 9 11 6 5 15 15 16 18 19 21 25 30 35 37 37 35 34 31 30 28 26 23 22
6 6 8 6 4 3 3 4 3 3 3 4 6 6 6 4 4 2 11 4 3 3 5 9 15 16 13 11 9 5 5 10 11 9 7 12 19 22 24 24 26 30 33 37 40 39 37 34 32 29 27 27 25 23
6 3 3 4 3 4 2 3 2 2 1 4 8 3 3 3 3 8 2 2 2 7 12 13 16 15 17 16 11 9 9 11 11 10 10 13 16 19 23 26 28 33 38 39 37 36 35 32 31 30 28 27 25 23
5 3 3 3 5 3 2 3 2 1 2 2 3 5 4 3 8 1 2 1 4 13 16 17 16 15 13 12 11 10 10 10 11 10 10 12 17 21 25 28 29 34 38 39 37 36 35 34 31 29 28 26 23 20
3 3 3 4 4 2 1 3 4 3 2 1 1 4 3 4 2 2 3 2 7 14 16 16 15 13 14 14 13 10 8 9 11 11 11 14 19 24 27 27 29 32 36 39 38 37 35 32 31 28 25 22 21 19
1 5 5 5 2 4 5 3 4 5 2 1 5 5 4 1 1 5 3 4 9 15 19 20 19 19 16 11 13 11 10 10 11 11 13 16 20 26 32 34 34 34 37 37 34 33 34 32 29 27 25 22 19 16
3 5 6 6 3 4 2 1 2 3 3 5 3 2 2 1 5 3 5 7 18 24 22 20 18 18 19 18 13 12 12 11 12 13 14 17 20 25 29 35 38 37 37 36 34 32 31 31 30 27 24 21 18 14
8 7 6 7 5 4 4 2 4 6 4 5 3 1 5 6 4 3 5 21 25 23 21 19 17 16 16 15 13 13 13 13 12 12 13 15 15 18 23 28 32 33 31 28 27 27 27 26 25 24 22 20 19 16
5 6 10 3 2 3 6 7 5 6 6 8 4 3 4 5 9 17 21 20 19 18 18 17 14 12 10 10 10 12 13 16 18 21 23 25 25 25 29 35 38 36 33 32 28 24 21 21 22 21 20 18 16 13
8 12 5 3 5 6 4 9 4 6 8 7 4 5 7 14 15 16 16 16 14 12 11 11 11 8 7 8 9 10 14 17 19 24 31 34 34 34 36 39 39 38 36 34 33 31 27 26 25 22 19 17 14 10
10 13 3 5 3 3 6 9 7 5 6 5 9 9 9 9 10 10 9 11 9 7 7 7 6 5 5 7 10 13 14 15 19 25 31 35 37 38 39 38 37 36 34 30 29 30 28 25 23 21 18 15 12 8
9 9 6 3 3 4 6 7 6 4 4 4 4 5 4 4 5 4 7 7 4 2 3 3 2 4 6 8 10 11 13 15 18 29 38 39 38 36 34 32 30 28 27 27 27 26 23 22 20 17 15 12 9 7
5 5 3 4 3 2 5 5 2 2 4 3 4 3 4 3 5 3 4 2 3 6 6 6 5 5 6 10 14 16 19 24 30 32 33 33 33 33 32 31 29 27 27 27 26 24 21 19 17 15 12 9 8 7

GFSWCAN_850_spd_009.txt.gz
Wind_Speed
18 18 21 21 21 22 23 23 22 21 22 22 22 21 24 22 17 22 12 7 10 4 8 14 17 11 8 8 3 3 2 2 2 2 3 3 4 4 2 3 4 6 5 4 2 2 5 1 2 1 3 10 7 2
17 17 20 19 19 21 22 21 22 22 22 21 20 20 22 21 20 18 19 10 4 3 3 7 13 16 15 13 14 10 1 3 4 3 2 2 3 2 3 3 1 3 5 2 6 5 3 5 8 12 13 11 6 3
16 17 20 18 18 19 21 21 21 22 21 21 21 22 22 21 19 16 19 17 4 1 3 6 11 12 12 13 11 6 4 6 5 6 2 2 4 3 3 4 2 3 3 3 1 2 5 8 7 8 8 5 1 6
15 17 20 19 18 19 20 21 22 22 22 23 23 23 22 22 19 17 19 17 9 3 2 3 8 10 14 15 15 16 12 7 7 5 4 3 2 4 3 2 3 4 3 2 5 6 8 9 6 4 4 8 13 16
15 17 20 19 19 19 20 22 22 23 23 24 24 24 23 22 19 17 16 14 9 5 2 2 3 7 8 9 11 13 14 13 8 3 3 3 2 2 1 0 3 6 6 4 4 3 3 3 3 4 9 13 15 19
14 17 22 19 19 21 21 23 23 24 25 26 25 25 24 22 16 13 3 5 8 7 4 1 1 3 6 7 8 11 11 9 5 4 3 5 5 6 3 3 5 12 10 7 2 1 2 4 7 7 11 14 16 21
15 18 21 19 20 21 23 23 24 25 27 29 28 28 27 21 13 12 7 4 4 5 3 1 2 2 4 4 4 7 9 7 8 4 5 4 4 6 2 4 5 8 10 13 9 6 3 10 5 11 14 17 20 24
14 17 22 20 20 21 23 24 25 27 29 32 33 28 16 11 10 14 16 12 5 5 2 1 2 0 7 3 3 6 5 6 7 4 3 2 3 4 4 8 17 13 10 9 12 12 3 9 14 17 17 22 27 27
15 17 20 22 19 20 22 24 25 27 31 33 23 5 1 4 5 2 13 10 10 8 2 2 3 3 6 2 4 4 4 2 4 2 2 3 2 4 7 6 11 15 14 15 15 10 8 14 21 22 24 27 30 31
15 17 20 22 19 20 22 23 25 28 32 21 8 3 2 1 5 2 8 8 8 6 5 2 5 2 4 3 1 2 2 1 2 1 3 2 4 20 22 18 13 9 16 14 17 12 15 20 26 27 28 29 31 35
14 16 20 19 19 19 20 23 27 28 28 15 9 5 11 2 4 3 4 4 4 1 5 5 9 3 7 2 2 3 1 1 2 3 2 2 3 3 6 13 24 14 14 15 14 14 17 21 32 32 30 30 31 30
13 16 19 18 19 20 21 25 26 26 14 11 10 11 6 3 2 2 2 1 3 4 3 3 6 6 6 5 2 1 2 1 3 4 1 3 4 3 8 7 8 16 12 16 11 9 15 19 28 30 31 31 30 28
13 15 16 16 18 19 23 26 27 19 5 3 3 3 3 3 1 4 4 2 1 3 2 2 0 3 4 4 3 2 1 3 1 1 3 4 5 10 4 4 6 13 15 15 10 12 15 22 28 29 32 30 29 28
13 14 15 15 14 20 24 26 21 4 2 2 4 4 2 3 2 2 2 3 5 3 8 3 3 2 2 3 1 2 1 1 2 3 5 3 4 10 4 2 8 15 18 15 13 15 18 26 29 29 30 30 29 28
12 14 14 11 13 19 23 23 7 3 3 2 2 1 2 4 3 7 9 8 5 6 3 2 1 3 0 3 1 2 0 4 5 5 3 3 7 5 2 2 9 17 19 16 15 19 23 28 30 32 31 29 27 27
10 14 6 11 15 18 22 12 4 2 2 2 1 1 3 2 3 5 6 9 11 14 1 3 1 1 3 4 3 7 5 6 4 3 4 5 4 2 1 3 8 15 18 18 18 21 26 30 33 34 32 29 27 26
10 7 8 14 16 17 17 3 3 2 1 1 0 2 2 5 6 3 5 6 14 7 1 1 4 4 2 1 2 5 5 3 5 4 4 2 1 1 1 5 10 14 17 18 21 25 30 32 34 34 33 30 27 25
12 9 11 12 15 17 6 1 3 1 1 2 1 3 4 8 12 10 6 5 7 8 5 1 3 2 5 5 4 3 9 8 5 3 2 1 1 2 5 8 12 14 16 18 22 27 31 35 37 35 33 31 29 26
11 9 9 10 12 11 3 1 2 2 3 3 4 5 6 10 12 12 12 9 7 7 7 4 4 3 3 2 3 13 13 7 7 6 5 5 5 5 8 11 14 16 17 19 24 30 35 36 35 35 33 33 31 29
10 11 10 8 7 4 3 2 2 2 1 1 3 4 7 10 12 12 12 9 7 3 4 4 3 1 4 12 17 20 18 16 10 8 7 8 8 9 10 13 15 17 20 23 28 33 36 36 34 32 32 30 29 28
9 8 5 5 5 8 4 3 2 2 2 2 2 5 6 8 7 4 5 6 4 4 2 3 4 11 14 16 16 17 19 15 14 10 6 10 12 13 14 15 16 19 23 26 30 33 34 37 35 33 31 28 25 24
5 5 3 4 4 4 3 3 2 2 2 0 2 2 4 4 5 2 8 3 4 2 4 10 18 22 21 21 21 18 21 19 13 16 13 11 17 19 20 20 22 24 26 29 33 37 36 34 34 31 29 29 27 26
3 3 3 5 4 4 2 3 2 2 1 2 4 2 2 3 3 6 3 4 3 3 10 14 18 19 22 22 19 17 16 17 16 16 15 13 16 17 18 22 23 25 29 32 35 37 38 36 33 32 31 30 29 28
4 3 3 4 6 3 3 3 2 1 2 2 1 4 3 3 7 1 3 4 5 5 10 15 18 21 18 15 15 14 12 13 16 16 14 14 17 18 20 22 23 25 29 34 37 38 37 36 34 33 32 32 29 26
3 4 4 3 4 2 2 2 3 2 2 1 1 3 3 3 2 2 3 4 7 5 14 20 19 17 19 21 18 16 10 10 13 15 14 15 16 19 21 23 24 25 27 35 39 40 40 37 35 34 32 29 27 25
3 6 5 6 3 4 5 3 4 5 3 2 5 4 2 2 1 6 3 5 8 10 19 24 25 24 21 18 21 19 16 10 10 15 15 17 18 22 25 29 30 28 29 36 41 41 39 36 35 32 30 26 23 22
4 5 5 5 4 5 2 2 3 3 3 5 3 1 3 1 5 4 6 9 11 20 26 24 22 22 23 22 20 17 15 13 13 14 14 16 18 21 24 28 32 31 34 35 38 35 33 36 35 33 31 27 22 18
7 8 6 9 5 5 4 2 4 6 4 6 5 3 6 7 5 4 6 14 23 25 24 21 19 19 20 20 19 17 13 12 11 12 12 14 16 17 19 21 23 28 34 37 38 35 33 35 35 32 29 26 25 21
6 8 11 3 3 4 8 6 5 7 6 11 5 4 4 7 12 16 23 23 23 23 23 20 14 14 15 14 14 13 11 11 13 15 16 18 19 18 17 21 26 32 38 38 36 31 32 32 32 28 24 24 23 21
9 15 6 4 6 6 5 10 3 5 9 10 6 6 10 20 23 22 23 22 18 19 17 15 14 12 12 12 12 10 11 13 18 18 21 24 24 24 25 29 35 38 39 38 38 39 37 34 31 28 28 25 22 18
12 14 4 6 4 3 6 9 8 6 7 7 13 14 17 14 20 19 13 12 14 14 14 13 11 10 11 11 10 8 9 10 14 18 18 19 25 29 32 35 39 40 42 43 43 40 38 34 31 29 26 24 21 17
10 9 6 3 2 3 5 7 4 4 4 4 5 8 6 6 6 6 6 10 11 10 9 10 10 9 9 8 8 9 8 8 11 14 17 26 31 33 36 42 44 45 42 40 38 35 32 31 31 28 25 21 18 16
5 5 4 4 3 2 4 5 2 3 3 3 4 4 4 4 7 5 5 5 5 6 8 8 7 6 4 1 2 4 6 9 11 16 22 28 31 36 38 38 38 38 38 36 34 33 31 30 28 25 22 19 17 15

GFSWCAN_850_spd_012.txt.gz
Wind_Speed
14 14 13 16 15 17 18 19 19 20 19 19 18 18 20 19 19 16 13 7 12 6 8 14 16 7 6 7 4 5 3 2 2 2 2 3 3 2 3 2 3 6 5 4 4 4 3 3 3 3 4 11 10 6
15 14 14 16 17 16 19 18 19 19 20 19 20 20 18 18 16 16 13 14 14 10 5 11 12 15 15 10 9 10 0 4 5 3 3 2 3 3 3 2 3 4 5 2 5 3 2 3 8 8 7 8 6 2
15 14 14 17 20 17 20 20 20 20 20 20 19 20 20 19 17 15 16 16 12 5 4 7 8 12 12 12 11 5 4 6 6 6 1 2 4 0 3 4 2 5 5 3 3 3 5 5 5 6 9 4 3 4
16 13 13 17 22 18 19 21 22 21 21 21 20 21 20 19 18 15 15 12 10 6 3 1 8 9 13 13 13 13 9 8 6 7 3 3 2 3 2 2 3 1 5 5 5 9 9 5 4 4 5 5 9 12
16 13 13 17 22 20 18 21 22 22 22 22 21 23 19 19 18 17 12 6 9 6 3 2 2 8 11 13 15 15 14 11 6 3 3 3 3 1 3 2 5 6 5 3 2 1 2 3 1 2 5 7 10 16
16 14 14 17 23 20 20 22 23 23 23 24 23 24 20 20 18 12 1 11 12 10 3 2 0 2 7 8 8 10 12 11 5 4 3 5 9 3 3 4 7 15 13 8 2 1 2 2 4 5 9 10 13 18
16 15 14 17 23 23 20 22 23 23 25 26 27 25 25 21 14 11 4 7 10 7 3 1 2 0 2 3 3 5 8 6 7 3 4 4 4 6 2 8 7 8 10 12 12 6 2 7 3 9 12 15 17 21
17 16 15 17 23 25 20 22 24 25 27 29 29 22 9 3 6 10 11 11 4 3 2 1 0 1 6 3 3 6 5 6 6 4 4 2 3 3 5 12 20 18 14 11 13 13 5 7 11 14 15 20 23 25
19 15 16 17 22 24 22 22 23 26 30 30 14 4 6 4 3 4 7 11 6 5 3 2 2 1 5 2 4 4 2 2 3 2 2 2 3 5 11 11 11 11 9 6 13 12 9 11 17 19 21 24 26 27
20 15 15 17 21 21 23 21 24 27 30 11 4 4 3 1 3 5 3 3 6 7 4 2 3 1 3 2 1 0 1 1 2 1 3 3 4 20 23 16 15 10 9 12 13 10 14 17 22 23 24 25 26 29
21 15 13 17 19 19 21 21 25 29 19 8 7 4 6 5 4 2 1 3 5 2 6 3 9 3 8 3 3 2 1 0 2 0 2 2 4 3 5 11 14 20 19 10 13 11 17 16 25 27 27 27 31 30
19 13 13 16 18 18 20 22 25 24 9 5 5 5 4 2 2 0 1 2 2 2 4 2 2 4 3 3 1 1 1 1 4 3 2 3 3 5 12 10 9 10 15 12 13 6 11 14 24 28 29 29 30 29
17 12 12 16 17 17 18 22 24 11 3 1 2 2 3 2 3 3 5 2 2 5 5 1 1 4 3 3 2 2 3 3 1 2 3 4 6 10 10 9 4 10 13 13 12 8 13 17 24 26 29 30 31 30
14 12 12 15 17 14 18 21 19 3 2 2 2 3 1 2 2 2 2 2 4 3 8 2 1 2 1 2 1 2 1 1 2 3 5 2 5 11 9 5 2 9 14 14 12 12 15 20 27 27 29 32 32 31
12 12 12 15 12 14 17 18 9 3 1 1 1 2 2 2 1 3 5 6 5 7 10 2 2 2 1 1 1 2 2 4 5 4 3 4 8 8 5 3 3 10 13 13 13 15 19 25 28 30 32 32 30 29
10 13 11 7 10 14 16 11 3 3 2 0 1 2 1 2 1 2 3 5 8 10 3 3 1 1 4 2 3 6 3 5 3 3 6 7 6 5 4 2 4 10 13 13 14 17 22 28 31 34 34 32 30 29
8 12 6 9 11 14 14 3 3 3 2 2 2 2 1 1 3 2 3 3 11 7 0 1 3 2 1 1 3 4 4 3 12 18 13 11 7 5 3 2 5 10 14 14 15 19 25 29 32 35 35 33 30 28
15 13 11 10 9 11 7 3 3 4 3 4 2 4 4 4 4 4 2 4 7 6 6 1 1 3 3 4 2 3 6 22 18 17 18 15 11 8 5 4 7 10 13 16 18 21 25 30 35 36 34 33 31 29
10 12 10 8 8 5 4 2 3 4 5 3 4 5 4 5 8 8 6 3 4 6 8 4 4 3 3 2 2 6 12 12 18 27 21 17 15 10 8 8 9 12 14 16 19 23 28 34 36 36 36 35 34 32
13 12 11 9 6 3 4 3 3 4 3 1 3 4 4 5 6 7 6 1 2 2 3 3 2 3 5 7 13 18 17 18 19 24 21 12 13 12 10 11 12 14 16 18 22 26 31 32 33 34 34 32 32 32
13 12 12 8 5 7 4 3 3 4 3 2 2 4 4 4 4 2 2 2 5 5 3 3 3 9 15 17 17 19 21 19 19 18 23 26 15 15 13 13 14 16 19 23 25 28 31 35 38 36 32 32 31 28
9 8 6 6 5 4 3 3 2 3 2 2 1 3 3 2 2 2 5 3 4 5 4 5 11 16 20 20 20 18 20 19 19 19 18 22 22 19 19 18 18 20 21 23 26 31 35 36 38 34 31 31 29 29
8 8 5 6 5 5 3 4 3 2 2 1 1 2 2 2 2 3 3 5 6 8 6 5 10 14 19 20 17 16 16 18 20 19 18 18 22 22 21 21 21 23 24 25 27 31 35 37 36 32 34 33 32 31
9 5 5 6 6 3 4 3 2 1 2 1 2 3 2 2 4 1 4 4 7 8 6 5 14 23 24 23 22 20 17 17 19 20 17 18 20 22 20 21 22 23 24 26 28 32 36 39 37 37 36 35 34 32
4 5 5 2 5 3 2 2 1 1 3 3 3 3 2 1 1 3 3 4 9 12 9 11 18 23 25 29 28 24 18 17 19 22 18 15 17 18 19 19 21 24 24 27 31 35 38 40 38 38 37 35 34 32
5 6 6 7 3 4 4 4 5 5 2 3 5 2 1 2 1 5 3 4 8 12 12 17 25 30 30 26 26 27 23 18 20 23 21 17 17 18 19 21 24 27 26 28 32 39 42 42 40 38 37 35 32 30
5 5 5 5 5 7 3 3 4 2 4 5 3 3 2 2 5 4 6 9 10 11 17 24 26 28 31 31 26 24 23 20 20 23 20 18 16 17 18 22 27 28 28 29 33 40 42 40 40 38 38 35 31 27
5 9 7 11 5 5 4 3 5 6 4 7 7 4 6 7 5 4 6 10 14 22 25 27 26 27 29 27 25 24 23 19 18 18 18 18 18 17 18 18 21 21 27 30 31 36 38 38 36 38 36 34 31 26
6 9 12 3 3 4 8 7 5 8 8 13 5 4 5 7 9 12 16 21 24 27 29 27 25 22 24 24 23 22 19 17 16 16 17 17 15 17 16 15 17 23 28 30 33 37 39 34 37 36 34 33 30 27
8 16 5 5 6 6 6 11 4 6 10 10 6 6 10 18 23 23 24 27 29 25 22 23 22 22 22 21 21 17 14 16 18 20 19 18 17 15 16 18 21 25 31 35 39 41 41 43 41 38 37 32 29 28
12 14 4 6 4 4 6 10 8 6 6 7 13 14 17 16 27 27 21 20 16 17 19 18 16 16 18 17 17 17 16 10 12 16 21 16 12 14 19 23 25 29 34 39 43 43 44 44 43 39 33 30 29 24
8 9 6 3 2 3 5 7 5 4 3 4 5 6 6 5 6 8 9 9 11 13 13 16 19 19 17 17 15 14 14 13 12 10 14 15 14 15 21 24 27 32 35 38 40 45 45 43 39 35 33 31 27 23
5 5 4 4 3 3 5 4 1 2 3 3 3 3 4 4 7 5 6 7 8 9 11 13 13 11 10 8 6 6 5 5 4 7 10 12 15 20 25 28 31 37 42 46 45 43 40 38 36 34 30 28 25 23

GFSWCAN_850_spd_015.txt.gz
Wind_Speed
17 17 16 13 15 19 16 19 18 18 19 20 20 19 19 18 18 16 8 9 9 5 13 5 12 7 9 10 4 5 4 2 3 3 1 2 3 1 3 4 4 8 6 4 4 4 6 2 5 4 6 10 10 10
16 18 16 13 15 19 17 19 19 18 19 18 20 20 21 18 16 16 10 10 10 8 9 5 9 13 9 10 4 6 2 3 3 2 3 2 2 3 6 3 3 4 6 2 5 3 5 8 11 12 9 10 9 6
17 18 16 13 14 20 20 17 18 19 19 18 17 20 21 21 15 14 14 12 11 5 8 6 10 12 14 13 9 5 3 4 4 4 1 1 5 2 3 5 5 5 5 4 5 2 6 11 7 3 7 7 4 1
17 18 17 14 14 21 19 18 18 19 19 18 17 19 20 22 17 16 15 13 9 7 4 2 8 9 13 14 13 13 4 4 5 5 3 2 2 3 3 4 6 4 3 4 9 14 12 3 5 3 3 3 5 6
16 17 18 15 15 20 23 18 20 20 19 19 19 20 20 22 17 20 17 14 13 8 3 1 3 9 10 12 13 12 8 6 5 3 3 3 3 4 7 5 10 10 8 6 5 5 6 5 3 3 3 5 6 9
15 20 20 16 15 19 23 19 21 20 20 21 22 22 23 21 15 13 4 7 11 15 3 2 2 2 7 7 8 9 9 9 7 4 3 4 7 5 3 6 8 14 19 18 10 0 3 4 2 1 3 6 9 11
17 23 22 17 16 18 23 22 21 20 22 24 25 26 26 23 18 14 5 8 5 9 3 2 2 2 4 4 4 4 6 5 5 3 4 4 6 5 3 9 8 6 7 10 8 6 4 5 2 4 6 9 13 14
18 20 22 18 16 19 23 22 22 23 26 28 29 18 7 2 6 11 17 13 8 5 4 2 2 3 6 4 4 6 5 6 6 4 4 3 4 3 5 12 18 20 20 13 9 10 9 5 7 9 10 13 16 17
20 21 21 20 17 18 24 20 22 25 29 19 5 3 6 4 2 4 8 9 5 3 4 1 3 2 7 3 3 5 3 3 5 2 3 3 3 5 10 8 7 7 7 5 9 10 10 9 11 13 15 15 18 20
20 18 20 22 17 18 22 21 22 27 25 7 2 2 2 2 2 4 5 3 4 4 4 2 2 2 5 4 4 1 3 2 2 1 3 3 4 22 25 23 16 8 4 7 8 8 14 15 16 17 18 18 19 22
18 19 22 21 17 18 19 20 22 26 14 6 5 3 1 6 5 3 3 3 5 3 4 3 4 1 3 2 1 1 1 0 2 0 2 2 4 1 2 8 11 11 13 19 10 10 11 13 17 20 20 20 22 25
21 20 21 18 15 18 18 18 21 22 8 5 5 3 2 2 3 2 1 2 3 1 2 1 2 2 1 2 2 0 1 1 3 3 2 3 3 5 12 15 14 13 8 13 14 11 9 14 17 23 25 25 26 28
21 18 19 15 13 17 18 16 19 14 5 2 2 2 2 2 2 2 2 1 2 5 7 4 1 0 1 2 1 1 2 2 1 2 3 4 8 12 16 15 11 7 5 9 10 10 9 13 19 25 26 26 28 28
19 19 17 14 13 17 14 16 16 4 2 1 2 1 1 1 1 1 0 1 1 2 8 4 1 0 0 1 0 2 0 1 2 3 4 3 15 21 18 14 9 3 4 5 7 8 11 16 21 24 26 28 31 31
17 17 15 15 15 15 13 15 9 1 2 2 2 1 1 1 0 1 2 1 3 4 5 1 2 1 0 1 1 1 2 4 4 2 3 16 24 22 19 17 11 5 4 6 6 8 12 16 21 24 26 30 30 30
15 16 15 11 10 9 14 13 4 3 2 3 3 2 2 2 1 0 1 2 5 5 0 1 1 1 3 2 3 5 2 4 1 3 15 21 22 20 19 17 12 6 6 7 7 8 12 18 22 25 28 29 29 29
15 13 10 6 9 12 13 7 3 4 3 2 3 3 3 2 2 2 3 2 6 3 1 1 3 2 1 2 3 3 3 1 8 13 17 20 21 22 20 17 12 7 6 8 8 10 15 20 23 27 31 30 29 28
21 13 7 10 10 11 9 3 3 4 4 5 3 5 4 2 1 3 1 4 5 3 3 1 3 3 4 4 2 2 4 12 13 13 23 25 22 18 18 16 13 9 8 9 11 12 15 21 26 31 32 31 29 28
18 11 10 8 8 5 2 3 4 3 4 2 3 3 3 3 3 5 5 3 2 4 6 3 4 3 1 4 3 6 10 12 17 25 24 22 18 20 17 14 12 9 9 9 11 13 16 21 28 31 32 32 32 31
16 9 10 8 7 3 3 3 4 2 2 1 3 3 3 2 2 3 4 2 3 2 3 3 3 1 2 1 8 12 14 14 18 21 18 13 21 21 20 17 12 10 9 10 12 15 20 23 25 29 32 33 33 33
18 18 12 10 7 8 3 3 2 2 2 2 2 2 2 3 2 1 2 4 4 4 3 7 4 5 7 11 13 15 18 17 14 16 26 28 25 25 22 19 15 12 11 12 15 16 20 23 26 31 33 33 33 27
15 11 8 9 7 5 4 6 2 3 3 3 2 2 2 2 2 2 3 3 5 6 6 5 6 7 10 12 15 16 18 20 21 22 21 22 24 23 23 19 18 16 15 16 17 18 22 25 29 33 35 34 30 27
13 11 7 6 5 5 2 6 3 3 3 4 3 2 2 3 3 3 3 6 6 9 12 9 7 4 8 12 16 17 17 18 21 21 20 21 23 22 22 20 18 18 18 19 18 21 22 25 31 34 34 32 29 30
14 9 5 6 7 3 4 3 3 3 2 2 2 2 2 3 1 3 3 4 7 8 11 12 9 9 14 19 23 23 22 19 22 23 21 20 23 23 20 20 19 18 19 20 20 22 23 28 32 35 35 32 33 33
7 7 6 5 6 4 4 4 3 3 3 2 3 2 2 2 1 3 3 4 8 11 13 14 13 14 18 24 25 24 23 21 21 26 25 21 23 24 23 20 20 19 19 20 22 23 26 30 35 38 37 35 36 34
5 9 8 7 5 5 5 5 5 5 3 3 4 1 2 2 2 5 3 6 11 9 11 15 15 18 24 25 28 29 26 24 24 27 29 24 19 19 21 21 22 21 20 21 22 26 29 34 37 39 36 35 35 35
5 6 5 5 5 6 3 2 4 2 4 5 4 5 3 3 5 3 6 10 11 11 11 13 18 23 28 30 30 29 29 27 25 28 28 27 26 24 25 23 24 23 19 23 25 26 31 36 40 39 37 37 36 34
3 9 7 11 5 5 3 3 5 6 4 6 8 5 6 6 4 4 7 6 10 13 17 22 23 27 29 29 29 29 27 25 25 25 27 27 24 22 22 23 21 20 17 21 25 26 30 35 40 40 39 38 36 34
6 8 11 4 3 4 8 7 5 7 7 12 5 4 4 7 7 8 11 13 19 22 25 28 28 25 25 27 27 25 24 23 23 25 25 25 21 18 14 16 17 16 16 19 25 22 27 31 39 40 37 36 34 31
7 15 5 5 5 6 6 10 4 6 9 10 6 6 9 16 20 20 22 25 27 26 25 23 21 24 25 25 26 24 20 20 20 23 26 25 18 16 13 12 15 16 17 21 24 22 26 35 41 42 40 39 36 34
12 12 5 5 3 4 6 9 7 5 5 7 12 13 17 16 26 26 19 17 17 16 15 19 20 20 24 26 26 26 25 16 13 14 16 18 19 17 11 10 14 16 19 24 28 33 35 39 41 42 42 40 38 32
7 8 5 4 2 2 4 5 4 4 3 4 5 7 6 5 6 7 8 8 9 11 14 17 20 21 18 19 19 19 19 18 15 14 15 15 14 13 10 12 16 20 24 28 30 30 32 37 44 45 43 37 31 28
5 5 4 4 3 3 4 4 3 2 4 3 4 4 4 4 7 5 7 8 8 9 11 13 14 14 15 15 14 12 9 9 8 7 7 8 9 11 12 17 20 20 24 28 32 34 40 45 43 40 37 34 30 27

GFSWCAN_850_spd_018.txt.gz
Wind_Speed
25 18 16 17 15 12 17 20 18 20 19 20 19 18 18 18 16 12 9 9 9 6 21 12 8 9 6 7 2 5 4 1 2 2 1 1 2 1 2 3 5 6 6 3 3 3 6 0 3 2 3 11 12 9
20 19 17 18 15 12 16 21 20 16 18 19 20 19 18 17 17 12 7 11 10 8 12 12 15 13 4 9 3 9 2 4 2 3 1 2 2 4 5 3 4 3 4 4 7 5 7 7 8 6 6 9 9 4
17 16 16 17 17 13 15 22 20 20 18 19 18 18 18 16 15 12 13 11 11 6 17 15 12 17 14 10 7 4 3 5 4 5 3 1 4 1 2 4 3 5 5 1 3 3 4 7 6 5 7 7 4 1
14 13 18 18 18 14 14 20 24 20 20 20 19 18 18 17 16 15 12 11 12 7 4 6 9 11 17 17 13 9 4 7 7 5 3 2 2 4 2 4 3 4 1 4 5 9 8 7 7 5 6 4 4 6
13 13 15 18 18 17 14 19 24 23 22 20 20 21 19 18 17 16 14 16 17 13 4 8 5 12 12 14 13 11 9 7 5 4 2 3 2 3 3 4 7 6 5 4 4 3 2 1 6 4 2 3 3 8
15 14 17 19 22 18 15 18 24 27 22 22 23 25 24 19 16 11 5 6 12 16 5 3 4 7 11 10 11 10 9 8 5 4 3 3 4 4 3 4 6 18 24 25 12 4 4 4 4 2 2 5 7 9
16 21 20 20 21 18 15 21 25 24 22 23 27 27 26 22 18 13 4 8 9 11 5 3 3 5 11 11 8 8 9 4 5 3 4 4 6 8 3 6 10 23 16 16 11 11 6 5 3 2 4 7 10 12
16 16 21 22 21 19 16 21 27 24 23 26 18 12 8 1 2 8 17 21 11 7 6 2 2 4 8 5 5 7 6 5 6 4 3 3 3 5 4 8 17 18 25 25 18 12 10 7 5 5 8 12 14 15
18 19 18 20 21 21 15 21 26 24 27 21 3 3 4 3 2 2 5 8 6 7 4 2 3 2 8 3 4 5 5 2 5 3 2 3 2 4 6 12 13 13 9 7 5 12 12 11 9 10 13 16 17 19
21 21 17 18 21 21 16 21 23 24 25 6 1 2 1 2 2 3 4 3 6 5 4 2 1 2 5 5 4 4 3 1 1 1 2 2 3 19 21 19 20 20 13 12 10 7 10 12 14 15 17 16 18 20
20 19 16 17 20 18 15 22 21 24 15 6 4 2 3 3 4 2 2 2 2 2 4 3 4 3 3 1 2 1 2 0 1 1 1 2 2 3 14 16 18 15 13 16 18 13 12 11 17 16 18 18 19 20
21 18 16 16 19 16 15 19 20 20 12 7 6 5 2 2 2 2 2 1 3 1 2 1 3 4 2 2 1 0 2 1 2 1 1 2 1 18 24 23 19 15 10 7 11 14 9 8 11 15 19 20 21 23
19 17 15 15 17 12 15 17 17 16 8 3 3 3 1 1 2 3 3 1 1 4 6 4 0 1 2 2 3 1 2 3 1 1 2 3 11 24 26 24 21 14 8 2 6 7 6 7 11 15 21 20 22 22
21 15 16 16 16 11 14 15 15 9 3 1 2 3 2 2 1 1 2 2 2 1 4 2 1 1 1 2 0 1 1 1 1 2 4 2 18 24 23 24 21 16 10 5 2 2 5 10 11 14 17 19 23 26
16 16 16 17 15 12 15 10 12 5 3 2 2 3 3 1 0 1 1 1 3 4 3 1 1 0 1 1 1 1 1 3 4 3 2 15 22 22 24 24 22 17 11 8 5 2 5 11 14 17 19 21 25 27
15 14 17 14 8 10 8 10 7 3 3 3 4 3 3 1 2 1 1 1 2 5 1 1 1 2 2 2 3 5 2 4 2 1 13 20 23 23 22 22 19 16 11 8 6 4 5 10 14 17 20 23 25 28
13 19 16 6 3 8 10 8 3 4 3 3 4 7 2 1 2 4 1 2 4 0 1 2 3 2 1 2 3 4 3 2 5 11 14 19 21 23 22 21 19 15 11 8 6 4 6 8 13 18 22 24 26 27
21 18 14 6 4 9 9 4 4 4 5 6 3 4 5 2 3 2 3 3 1 1 2 1 2 2 3 3 2 2 4 8 9 12 18 18 16 20 22 22 20 16 12 9 7 6 6 9 14 20 23 25 26 26
23 18 14 9 5 4 3 3 4 3 7 3 5 4 4 4 6 7 4 2 2 3 1 2 2 3 1 2 2 2 6 7 12 18 19 14 13 23 22 22 20 17 15 11 7 6 6 10 16 19 23 26 28 28
21 15 11 11 6 3 3 3 4 3 3 2 4 4 4 3 5 6 6 5 3 2 2 3 3 4 4 4 3 8 11 13 16 19 23 17 23 22 24 22 18 16 14 13 9 8 8 12 15 17 22 27 29 30
20 17 15 14 9 6 3 3 4 4 3 3 3 3 3 4 2 3 4 5 5 5 3 9 7 7 7 7 6 9 12 14 15 15 19 26 26 23 21 21 19 17 14 12 11 10 10 12 13 17 24 27 28 29
20 20 15 11 5 4 5 6 3 2 3 1 3 3 2 3 4 4 5 5 5 7 8 8 10 8 5 3 3 6 10 13 15 18 19 20 22 24 24 22 22 20 16 14 14 14 12 13 15 19 24 28 29 29
18 19 9 5 4 6 4 5 4 3 3 3 2 1 2 2 2 4 3 6 7 9 15 14 11 8 6 4 7 12 15 17 18 19 20 22 23 22 20 21 20 20 19 16 14 16 16 13 16 21 25 28 29 30
17 9 6 9 8 3 4 4 4 3 3 2 2 2 2 4 3 3 3 5 9 8 11 13 13 12 10 10 12 16 19 21 22 24 23 22 23 24 22 24 23 20 20 18 17 16 17 17 18 22 26 30 33 35
7 6 6 4 6 4 4 4 3 3 3 3 2 2 2 3 1 3 3 4 12 13 12 12 14 15 17 15 17 19 22 23 24 26 28 25 25 27 27 25 22 19 17 18 18 18 20 20 22 23 28 33 36 34
5 10 11 10 5 5 5 5 6 6 3 3 4 3 3 2 1 6 3 5 10 11 13 13 11 15 18 19 21 23 25 26 25 28 30 28 23 22 23 22 24 23 17 15 17 20 22 24 26 26 29 34 35 33
6 6 8 7 5 5 3 2 4 3 4 5 3 4 3 2 5 4 6 8 8 9 12 14 16 17 19 23 25 27 27 25 26 27 26 26 27 26 27 30 31 28 21 18 16 20 24 26 28 29 31 34 34 34
4 10 7 12 6 6 4 3 5 6 5 7 10 4 7 7 5 4 6 6 6 11 15 16 17 21 26 28 29 27 26 24 24 25 27 28 27 23 21 22 23 22 20 19 19 19 23 25 28 32 34 37 38 35
5 11 12 4 4 6 9 8 5 7 7 12 5 4 4 6 6 6 5 9 13 16 20 22 23 26 27 23 23 23 22 23 24 25 26 28 26 20 14 14 15 15 17 18 17 18 21 23 26 30 32 36 37 36
8 18 6 6 6 6 6 9 4 6 9 10 6 4 6 11 14 15 17 21 24 25 25 24 21 19 21 22 26 27 24 25 24 24 26 27 24 18 14 12 13 14 15 15 16 18 18 21 25 30 34 37 39 37
15 11 5 6 3 4 6 9 7 6 6 8 12 13 13 12 22 24 21 20 18 17 15 13 14 16 20 22 23 26 28 22 17 15 16 18 18 16 14 13 12 11 11 14 18 20 27 32 30 33 36 39 39 37
9 8 6 4 1 3 4 6 5 5 3 5 4 7 5 4 6 8 13 9 8 9 10 12 14 14 15 16 16 17 19 20 18 15 16 18 19 17 13 10 9 9 12 17 22 28 31 29 31 34 37 39 40 39
5 5 4 5 3 3 5 4 2 2 3 3 3 3 5 4 8 7 8 8 8 7 7 9 11 12 13 13 15 16 16 16 15 13 10 10 10 8 9 9 10 12 14 17 22 27 27 26 31 39 43 42 38 33

GFSWCAN_850_spd_021.txt.gz
Wind_Speed
17 17 14 18 18 15 8 10 18 22 16 14 17 16 16 15 17 15 9 7 9 6 22 15 11 5 7 2 3 5 4 2 1 2 2 1 1 2 0 4 6 6 6 4 3 4 7 6 4 3 5 3 4 2
15 10 12 17 14 14 10 8 17 22 20 16 17 17 16 15 15 16 14 10 11 11 13 14 17 16 15 4 4 9 1 3 6 3 1 1 1 1 1 2 3 3 6 4 7 5 8 5 8 7 7 9 6 3
13 14 12 13 12 16 12 10 12 21 23 17 16 17 17 15 16 15 17 14 11 9 21 19 23 19 17 13 5 5 3 4 3 3 3 2 2 1 2 4 2 3 2 3 1 5 4 4 0 5 8 6 4 4
17 16 13 12 11 13 16 12 11 17 23 22 17 16 16 17 17 15 19 14 12 8 5 9 8 15 20 19 14 6 2 7 8 4 3 2 1 3 3 3 2 5 6 2 5 9 3 1 3 6 5 2 1 5
18 14 14 13 15 15 18 14 11 18 23 23 20 18 18 20 21 21 19 20 17 15 5 13 15 14 18 20 17 12 9 9 6 3 2 3 2 1 3 3 4 5 6 4 5 6 3 3 6 5 4 2 3 6
17 18 18 15 16 17 20 14 13 19 24 24 20 23 22 21 21 17 6 8 12 19 4 4 6 15 16 16 15 12 12 8 5 4 3 3 3 4 3 3 6 12 17 21 10 12 11 7 5 4 3 3 5 8
21 21 17 13 16 19 19 17 14 20 26 21 23 22 16 12 9 9 4 5 8 23 5 4 3 9 17 18 12 12 12 6 5 3 3 3 5 8 2 5 4 17 25 28 24 15 7 9 6 3 3 5 8 10
17 17 13 14 16 16 18 17 15 22 24 24 22 6 6 2 2 3 15 19 13 4 6 3 1 5 16 6 5 7 7 6 6 3 3 3 2 4 4 7 16 20 20 8 10 8 14 9 7 6 6 8 12 14
15 15 14 17 16 15 18 15 17 24 24 20 4 2 2 1 1 3 3 8 15 9 5 4 1 3 8 5 6 6 6 2 7 3 3 5 2 4 4 12 16 19 15 16 14 8 7 9 9 10 11 14 15 17
16 15 15 16 12 16 17 14 18 23 23 7 0 1 1 2 3 5 5 3 5 6 6 3 2 2 5 4 3 6 4 2 2 3 4 2 3 4 18 20 20 22 20 14 13 13 11 12 13 14 17 16 16 18
15 14 15 14 11 15 17 13 19 21 18 6 4 1 4 5 2 3 3 4 5 3 5 4 5 3 2 2 3 1 2 1 2 2 2 2 1 6 23 23 21 19 17 15 15 18 15 13 13 16 18 18 18 20
16 14 14 9 10 14 13 13 17 17 14 8 9 6 3 3 4 2 2 2 2 1 3 2 3 4 3 2 3 1 2 1 3 1 1 2 2 18 22 24 24 19 17 13 10 10 12 13 10 14 17 19 19 21
16 13 13 9 10 14 12 12 16 15 12 2 1 2 2 2 3 3 2 2 1 6 6 3 1 1 2 2 3 2 2 2 2 1 2 1 9 19 22 22 22 16 13 10 7 7 8 8 9 14 19 19 20 21
13 13 14 10 12 15 11 9 11 11 3 0 0 3 3 2 4 2 1 1 1 2 6 4 2 1 2 3 1 3 1 2 1 1 2 1 17 20 19 20 21 19 14 12 9 4 2 5 8 11 14 16 19 21
15 13 10 12 14 15 9 6 8 7 2 2 2 3 4 4 2 2 2 1 0 2 3 1 1 0 1 1 0 2 1 3 3 3 1 10 15 18 20 21 20 19 15 11 9 6 1 5 7 10 13 16 20 20
15 10 15 14 11 7 4 5 6 3 3 3 5 3 5 2 2 2 6 4 1 2 1 0 0 1 2 2 2 4 2 4 2 1 4 12 12 16 20 21 19 17 15 12 9 6 3 4 7 10 12 16 17 20
14 17 16 10 5 3 2 6 3 3 4 3 5 8 8 4 1 4 2 2 3 1 1 1 3 3 1 2 2 2 2 2 1 3 8 10 10 13 18 20 19 17 15 13 11 8 5 4 7 10 14 16 17 20
22 19 14 9 5 3 5 4 3 4 5 7 4 5 8 4 5 4 4 5 2 1 1 1 1 3 4 3 3 3 4 1 3 4 8 10 7 14 17 19 19 17 14 12 11 9 7 6 7 11 14 16 18 21
25 19 14 9 7 3 2 4 5 4 7 4 8 8 6 5 9 8 7 6 4 3 2 1 2 3 3 2 4 10 6 2 3 8 10 10 7 16 17 15 13 15 16 14 10 8 7 7 8 10 13 17 21 23
20 13 13 10 11 5 3 4 5 4 3 2 5 4 4 4 6 9 11 8 5 3 2 4 4 4 5 7 7 5 2 3 6 9 10 9 11 14 15 14 15 13 13 13 12 9 8 8 9 10 13 18 21 25
21 20 16 13 13 9 3 4 4 3 2 3 3 6 4 5 5 4 3 6 5 5 3 10 8 8 7 5 4 3 3 3 5 7 11 14 14 15 17 18 16 15 14 13 13 11 11 9 9 10 14 18 21 24
28 26 20 17 5 8 5 5 3 2 2 2 2 3 3 3 5 5 8 6 7 9 9 6 10 12 11 8 7 5 2 4 7 10 12 14 16 18 19 19 17 17 16 13 13 13 12 11 11 12 15 17 21 24
27 25 12 7 5 9 3 5 4 3 2 2 2 2 3 3 3 6 4 8 9 11 14 14 11 9 9 10 9 5 5 8 10 12 15 17 18 18 18 18 18 19 19 18 13 14 14 12 13 15 16 18 20 24
24 14 8 10 8 5 5 4 4 2 2 2 2 2 2 4 4 2 3 5 9 8 12 14 13 12 13 14 13 9 9 13 15 18 18 19 19 19 19 20 21 22 21 20 18 15 14 14 15 17 20 21 23 27
9 6 7 4 6 4 3 3 3 3 3 3 3 3 3 5 1 3 3 5 11 13 12 10 11 12 15 14 14 13 14 17 20 24 26 24 24 26 26 23 21 20 19 16 16 15 14 13 17 20 22 25 27 30
5 10 10 11 5 6 6 5 6 5 3 4 5 2 3 2 1 6 3 4 7 9 13 12 10 10 14 14 15 16 20 23 25 30 30 26 26 25 26 27 28 26 18 17 17 15 14 15 19 23 25 26 29 31
7 6 8 8 8 6 3 2 4 3 5 5 3 4 3 3 6 4 5 7 9 10 9 9 12 15 16 17 19 21 24 28 31 31 30 30 29 27 27 28 32 29 23 20 18 19 16 17 19 23 25 26 29 31
5 11 8 15 6 6 4 3 4 6 4 6 9 5 6 7 4 3 5 10 10 7 8 11 14 17 19 20 24 27 31 29 28 30 32 32 29 26 23 23 24 22 20 20 19 20 21 19 20 21 24 27 30 31
5 15 14 4 4 4 7 8 5 7 7 12 5 4 4 6 5 5 7 8 9 12 14 16 18 20 22 25 26 24 24 24 28 32 33 35 32 26 17 19 19 18 18 16 16 17 18 18 20 21 22 26 28 27
9 20 6 6 6 6 8 10 4 7 10 10 6 4 5 8 9 10 13 16 19 20 21 23 22 20 17 18 20 21 19 20 23 24 28 30 29 22 18 16 17 17 16 16 16 15 16 17 15 20 25 26 28 30
22 11 5 5 4 6 7 11 8 7 7 9 14 14 12 11 21 23 21 21 20 19 17 14 11 12 15 17 20 23 24 18 19 20 21 23 24 22 17 14 13 15 16 14 13 13 15 21 25 25 25 27 29 32
9 7 6 4 2 5 6 7 5 5 4 5 5 8 6 6 6 9 15 12 10 8 8 9 10 11 14 15 16 17 20 21 21 20 20 20 20 18 16 14 14 13 12 11 10 12 20 24 24 25 26 28 28 30
5 5 5 6 3 3 5 5 4 2 4 3 3 3 5 4 8 7 8 8 8 7 7 8 9 10 12 14 14 15 16 17 17 18 17 16 15 11 9 9 10 11 9 9 10 15 21 23 23 23 24 26 33 41

GFSWCAN_850_spd_024.txt.gz
Wind_Speed
18 18 17 17 15 11 14 10 8 14 17 20 11 12 13 10 10 12 8 5 6 6 23 23 15 9 6 4 4 5 4 1 2 2 3 3 2 3 2 4 6 7 5 3 4 4 7 7 5 3 4 6 8 9
19 20 18 16 12 12 11 12 11 11 17 19 17 11 13 14 11 13 12 10 10 11 15 21 24 24 24 17 4 8 2 4 7 3 1 1 1 1 2 2 2 4 6 4 7 5 6 4 8 14 11 13 12 8
27 22 16 18 18 18 17 10 13 11 13 19 19 19 13 12 12 12 17 13 14 12 21 17 24 27 27 27 17 6 5 6 6 4 5 1 1 2 2 4 2 3 3 3 1 4 6 17 13 7 10 11 11 8
23 18 19 16 17 14 12 15 11 11 12 16 21 19 17 14 14 15 17 15 15 7 5 11 11 9 22 20 23 18 6 9 10 6 3 2 2 5 2 2 2 4 5 3 5 8 12 5 5 7 10 9 8 6
19 17 19 15 13 12 13 16 13 13 13 19 23 19 16 18 18 18 20 20 17 12 4 15 35 23 24 21 23 16 11 11 6 3 2 3 2 2 2 1 3 5 5 3 4 8 6 8 7 9 11 10 7 6
18 17 14 17 16 16 16 17 16 15 14 20 25 18 20 16 15 15 4 5 14 21 6 4 9 18 24 27 22 18 14 9 6 5 3 3 2 4 2 3 5 12 11 14 7 13 13 16 16 13 10 9 6 7
16 16 17 17 14 11 14 16 17 13 15 23 22 20 13 8 8 5 3 3 1 12 5 4 4 6 31 26 18 18 13 8 5 3 3 3 5 7 2 3 3 12 19 24 14 13 13 17 12 9 8 7 6 7
18 17 16 14 11 12 14 16 18 15 19 23 20 5 2 3 1 1 6 12 10 12 6 3 5 4 20 11 6 7 8 7 6 3 3 3 3 4 3 4 9 11 19 14 16 11 14 15 11 10 9 9 9 9
14 12 13 14 12 12 12 17 16 16 20 20 4 1 1 1 3 4 4 2 6 6 4 3 4 3 7 10 6 5 5 2 5 3 3 5 3 3 3 10 12 16 12 21 21 13 9 8 9 11 11 12 12 14
11 10 11 13 11 10 12 16 14 18 20 8 2 2 2 2 3 4 3 2 4 5 6 4 6 2 3 4 3 4 4 2 3 3 6 2 2 9 9 13 14 16 15 15 17 13 11 14 12 11 14 14 14 15
14 13 12 9 12 10 12 15 14 16 12 6 3 2 3 5 2 2 3 4 5 3 6 6 4 2 3 2 2 3 2 1 2 2 2 2 2 3 16 17 17 15 12 11 11 15 17 19 15 14 15 17 16 17
10 14 10 10 9 8 11 14 14 14 12 8 5 6 2 1 2 2 3 3 3 2 6 4 5 4 3 3 3 1 2 1 2 3 2 2 1 12 16 18 18 15 13 11 9 9 6 8 12 14 13 18 18 18
13 9 8 9 9 10 11 15 12 11 12 3 2 2 0 2 2 3 2 2 1 6 7 8 3 3 2 4 4 2 2 2 5 1 3 1 6 14 16 18 18 15 12 10 10 6 4 3 5 6 10 15 17 18
17 9 8 8 9 11 13 13 11 8 4 1 2 2 3 3 3 1 1 2 4 4 6 5 3 3 3 3 1 2 1 2 2 2 4 1 9 12 14 15 17 18 15 13 12 11 8 5 4 5 6 11 14 16
13 17 9 10 10 12 15 10 7 6 3 2 3 3 4 4 3 2 2 3 4 5 5 2 1 1 2 1 1 2 1 3 4 4 2 2 5 9 14 18 18 16 15 13 11 10 8 5 5 4 5 8 13 15
12 16 13 12 12 12 9 6 6 3 2 3 4 3 5 3 2 3 5 3 4 5 4 2 0 1 2 2 1 4 2 5 3 3 4 2 2 7 12 16 17 16 15 12 11 10 8 6 5 6 7 10 13 14
17 23 17 12 12 7 4 4 2 3 4 4 5 9 11 9 6 4 3 1 2 3 1 1 3 4 1 2 3 3 3 2 9 6 1 2 2 5 11 13 14 15 16 15 12 9 7 6 6 7 9 11 14 15
22 19 19 13 8 6 5 5 3 4 5 7 4 3 8 8 5 5 5 4 1 2 2 1 1 2 3 3 2 3 4 9 8 4 2 2 5 6 13 15 12 12 12 12 12 11 9 7 5 6 8 10 12 14
16 18 19 13 8 5 2 4 4 4 7 4 7 9 6 7 9 9 9 7 4 4 2 2 3 3 3 4 4 10 15 10 6 5 5 7 6 9 11 11 12 12 11 11 10 10 9 8 7 6 8 10 13 15
20 23 17 12 10 7 3 4 5 5 4 3 5 4 4 5 6 9 13 11 6 3 2 3 5 4 4 5 7 12 10 8 5 5 4 4 5 8 10 13 14 15 13 11 11 11 10 9 8 7 8 10 13 15
20 16 18 19 15 11 4 4 5 4 3 4 3 5 5 7 7 5 7 10 8 5 3 12 13 8 8 8 8 6 6 5 4 3 4 7 9 12 13 14 16 15 16 15 14 12 12 11 10 10 10 11 12 14
22 26 26 21 7 8 6 7 3 2 3 2 3 5 4 3 3 4 7 7 7 11 13 12 12 14 14 13 10 8 7 6 5 5 7 9 11 12 13 14 16 16 16 17 15 15 15 13 12 12 12 12 14 15
23 30 16 9 6 10 4 7 5 4 2 2 1 2 3 3 3 5 4 8 10 14 18 19 14 12 13 13 13 12 10 7 6 8 9 11 13 15 16 17 17 21 23 20 18 19 18 15 13 13 12 14 15 16
23 13 9 11 9 5 5 5 4 3 3 1 2 3 3 3 4 3 4 6 11 11 15 18 16 16 16 16 17 16 13 10 9 11 13 15 18 19 19 21 21 21 21 23 23 21 18 16 14 15 13 14 15 18
8 10 8 4 6 5 2 2 3 2 3 3 3 3 2 4 1 3 3 6 13 16 14 14 17 16 16 13 12 14 16 16 16 17 19 19 23 28 26 23 23 22 20 20 17 17 16 15 16 16 16 17 18 19
7 12 13 11 5 7 6 5 6 6 3 4 4 2 3 1 1 6 3 5 10 10 17 17 14 14 13 12 11 11 13 15 18 22 26 27 28 28 28 28 29 29 20 17 19 21 22 18 16 16 17 19 20 21
6 6 8 7 10 8 3 2 5 3 4 5 3 4 3 3 6 4 5 6 6 11 13 10 9 10 9 11 13 16 18 20 21 25 30 33 33 31 29 29 31 30 27 23 19 21 23 22 20 17 17 18 20 23
8 12 8 16 6 8 5 3 5 6 4 7 7 5 5 7 4 2 4 8 14 13 11 7 7 10 14 17 19 20 21 23 27 30 30 31 32 31 28 27 29 26 25 25 22 20 21 22 22 20 17 17 19 21
7 13 16 4 5 6 9 6 7 11 8 12 5 4 4 5 4 4 6 10 15 14 11 11 13 17 19 20 22 24 25 24 24 27 30 33 33 29 22 22 22 21 20 21 19 18 17 18 18 20 19 17 18 18
10 22 5 6 6 6 11 12 7 9 13 12 7 5 6 9 9 8 9 11 14 15 18 21 22 21 21 20 19 17 18 20 23 25 27 29 30 28 24 20 18 19 19 21 20 18 17 17 17 17 19 18 18 20
21 12 5 5 4 6 8 15 10 9 9 10 15 15 15 12 22 25 24 24 24 24 24 23 19 16 14 13 16 18 20 18 17 20 22 25 26 26 23 19 15 15 16 16 17 16 14 14 17 20 21 19 18 20
9 7 5 4 2 6 8 9 7 6 5 6 6 9 6 6 6 11 17 17 16 16 14 11 9 10 11 13 15 18 20 20 21 22 22 21 20 20 17 15 12 11 14 14 13 12 13 13 15 18 18 17 19 20
4 5 6 7 5 5 6 5 3 2 4 3 3 4 5 4 8 6 7 9 9 8 8 8 7 8 10 12 14 15 16 17 19 19 17 15 14 18 14 11 9 10 8 8 9 9 10 11 14 16 17 16 18 18

GFSWCAN_850_spd_027.txt.gz
Wind_Speed
11 15 15 16 23 19 18 13 12 10 11 16 16 17 11 12 12 12 11 9 8 6 19 17 12 8 8 5 3 3 3 1 2 3 3 3 3 4 3 3 6 6 6 3 4 4 7 6 5 3 4 10 10 11
15 17 18 23 22 19 21 17 14 11 12 13 16 19 18 13 13 12 15 11 12 14 17 22 28 25 23 25 8 4 2 4 8 3 1 2 2 2 3 3 1 3 6 4 7 5 4 7 7 12 16 13 12 13
16 17 24 21 17 19 19 14 13 12 12 12 16 16 20 18 14 13 17 17 16 18 25 20 22 21 19 31 25 5 5 5 6 4 5 2 2 3 4 4 2 3 3 3 0 4 7 13 17 12 7 11 12 11
21 25 20 19 17 17 14 11 13 17 10 11 15 19 21 18 12 14 18 18 17 10 6 12 17 17 8 12 18 29 24 3 6 6 3 2 2 4 3 3 3 4 2 2 4 7 13 11 7 5 8 11 12 10
21 18 18 17 16 14 14 15 15 17 15 15 16 21 23 17 19 20 21 22 21 17 4 16 34 32 25 26 27 24 28 29 8 4 1 3 2 2 1 1 3 5 5 3 3 6 8 15 12 15 13 13 12 10
23 21 18 17 15 15 16 14 15 16 18 14 17 22 22 19 16 14 7 5 7 23 7 4 10 17 13 21 32 25 29 21 7 4 3 3 3 4 2 2 5 10 6 5 5 19 26 28 27 21 18 14 10 8
22 19 15 15 16 16 14 13 13 18 18 16 21 25 18 9 9 7 5 6 3 6 5 4 4 6 13 27 28 22 23 9 7 5 4 5 4 7 2 4 2 2 6 14 16 14 11 14 14 11 11 11 9 7
16 18 16 16 14 13 11 12 16 19 17 19 22 10 1 1 3 5 8 9 8 9 5 3 4 6 20 10 6 9 8 8 6 4 5 3 5 4 4 1 5 10 14 18 9 14 17 20 18 16 13 11 10 9
13 13 13 12 13 12 13 11 16 18 19 21 9 3 3 3 3 4 9 5 8 6 4 3 3 1 9 7 6 5 5 2 3 3 3 6 3 4 2 3 8 11 11 20 25 23 19 15 12 10 11 13 14 12
8 10 8 7 10 10 10 11 17 19 20 13 3 2 4 3 5 6 2 2 3 4 6 4 6 1 3 4 3 4 4 2 1 3 7 3 2 9 3 5 9 13 15 15 18 17 15 12 14 15 13 11 13 12
10 8 9 9 8 10 10 12 17 17 16 7 3 3 5 6 3 3 3 4 4 3 5 6 5 2 4 2 2 3 2 1 3 2 3 2 2 3 5 8 10 12 12 11 13 16 16 17 20 19 15 13 14 14
15 11 12 12 9 9 8 11 16 16 13 10 9 7 4 2 2 2 3 3 3 2 4 4 6 5 4 4 4 0 2 0 2 2 1 2 2 3 7 9 11 11 9 9 9 12 12 12 11 12 15 15 14 14
12 15 7 9 8 7 9 12 15 14 16 5 2 3 2 3 3 4 3 2 2 7 6 6 2 3 1 3 4 2 2 2 5 1 3 1 3 5 8 10 10 9 8 8 8 8 8 5 4 5 7 8 10 14
6 10 9 8 6 8 10 13 16 11 7 1 2 4 3 3 3 3 2 2 4 6 13 13 4 3 3 3 1 2 1 2 1 2 4 2 3 5 7 11 12 13 12 11 11 10 10 6 6 6 6 7 10 13
4 5 12 8 6 10 10 15 13 6 4 3 3 4 4 4 4 6 5 4 5 8 9 6 3 2 2 1 1 2 1 3 4 3 1 5 5 4 6 11 13 14 15 14 13 11 10 9 7 6 4 3 7 10
7 4 17 12 9 9 13 12 8 4 3 4 5 3 6 2 3 3 7 6 7 7 5 2 2 1 2 1 2 4 2 5 3 2 6 7 5 2 6 10 12 14 15 15 14 13 11 9 8 6 6 5 5 7
8 17 11 12 10 11 8 6 3 4 4 4 5 9 11 9 7 8 4 3 4 5 1 0 2 3 1 2 3 3 3 1 5 10 6 4 2 2 6 11 12 12 14 15 14 13 11 10 8 7 5 5 7 9
11 12 12 14 12 9 7 4 3 4 5 7 4 2 7 7 6 6 5 5 3 2 3 2 2 3 3 3 3 3 4 9 10 6 3 0 4 5 8 11 11 11 13 14 14 15 14 12 9 7 6 6 6 8
8 10 9 15 12 7 3 4 5 4 7 5 7 10 9 7 9 12 11 8 5 5 6 4 3 3 3 5 5 8 12 12 10 9 6 5 6 5 7 8 10 12 13 14 14 14 13 13 13 11 9 8 8 8
6 8 8 15 10 7 3 4 5 5 5 3 5 5 5 6 7 9 12 10 7 4 2 3 4 4 6 6 6 8 14 12 10 8 6 5 5 5 7 9 11 13 13 12 11 12 13 11 10 11 11 10 9 9
9 8 19 15 10 9 4 4 5 4 5 5 4 4 5 7 8 7 9 12 8 6 3 14 16 11 11 8 8 9 13 12 10 8 5 5 5 7 8 10 11 12 13 14 15 14 12 14 15 14 13 11 11 11
8 15 18 20 10 7 6 8 4 3 4 4 3 4 5 3 4 4 5 9 8 11 15 18 20 17 19 15 13 12 10 11 9 7 6 6 6 6 8 11 14 14 14 16 17 19 19 17 16 15 14 12 12 12
9 11 16 11 8 9 4 7 5 4 1 2 2 3 3 3 3 3 4 9 11 18 21 24 24 19 15 15 16 15 13 12 11 9 8 8 8 9 12 14 16 19 21 20 20 20 20 19 17 16 15 14 13 12
9 6 6 7 13 6 6 6 5 3 2 1 1 4 3 3 2 3 4 7 15 16 18 19 20 20 18 19 20 17 15 14 12 11 10 10 12 13 16 20 21 19 19 22 22 21 22 20 16 15 15 15 14 14
5 6 6 5 7 4 3 1 1 2 4 4 3 3 2 2 1 3 4 7 14 21 17 15 18 20 20 18 16 15 16 18 17 16 15 16 18 20 23 23 22 21 20 18 17 18 20 22 20 18 17 15 15 14
5 9 10 11 4 7 6 5 6 7 4 4 5 1 1 1 1 6 3 5 10 10 12 18 18 18 17 15 13 13 14 16 18 21 20 21 22 23 26 28 26 25 22 20 20 21 22 23 24 22 20 17 14 15
5 7 7 7 5 5 3 3 5 3 5 6 3 3 2 3 6 4 5 7 5 4 8 11 10 8 5 7 10 12 14 16 18 20 21 23 25 28 28 26 25 25 26 28 27 24 23 23 23 22 22 20 17 16
11 13 8 13 10 10 5 4 6 7 5 8 9 4 5 6 4 2 4 4 7 11 14 12 9 8 10 12 14 16 18 19 19 21 24 26 27 26 20 22 24 25 28 29 28 26 23 23 24 23 21 21 19 16
9 13 13 4 4 7 11 8 6 10 11 16 6 4 4 7 7 7 7 6 11 14 15 13 11 11 13 17 18 19 19 20 21 23 24 25 26 25 20 21 23 24 25 26 24 23 21 18 18 18 17 17 17 15
12 21 9 10 5 7 10 15 7 12 18 16 11 9 12 18 20 15 12 12 13 14 17 18 18 19 20 20 20 20 19 16 18 20 22 23 23 26 26 25 24 23 22 24 24 21 20 20 20 20 19 19 16 16
17 19 7 10 7 9 12 16 11 13 13 12 17 18 20 20 30 33 30 27 26 27 27 27 28 26 24 20 16 15 14 16 15 17 20 23 25 26 24 20 18 17 17 19 20 19 17 17 18 18 17 19 18 18
14 15 10 5 3 7 10 11 8 7 5 7 8 13 12 8 7 13 20 21 19 20 20 21 20 17 13 12 12 13 14 15 16 18 20 22 23 20 16 13 15 14 13 13 14 16 15 14 14 14 14 14 15 16
5 5 5 7 5 5 8 7 6 2 4 4 6 7 8 6 8 8 10 11 10 8 6 7 7 8 9 9 10 12 15 16 18 19 18 18 17 14 12 17 16 15 14 14 11 10 10 11 11 10 11 13 13 12

GFSWCAN_850_spd_030.txt.gz
Wind_Speed
12 10 13 15 16 21 22 21 19 17 14 14 11 13 17 12 12 13 12 10 8 5 19 17 12 9 8 6 2 3 3 1 2 3 3 3 3 5 2 3 6 7 7 4 5 4 7 6 6 4 3 6 9 9
10 13 15 18 19 21 19 20 18 12 15 13 8 12 14 13 16 14 14 12 12 15 17 24 29 32 28 25 11 6 4 5 8 3 1 2 2 2 3 3 1 4 6 4 7 5 4 3 4 8 14 14 7 10
13 13 15 19 21 20 19 18 12 12 18 20 12 12 15 16 18 13 16 16 18 19 22 21 11 13 16 25 29 8 7 3 3 3 6 2 2 3 4 4 3 3 6 2 1 3 6 13 17 17 9 6 10 11
16 15 19 19 17 17 17 15 15 15 17 19 14 10 16 19 19 14 15 16 18 12 6 11 15 20 10 14 21 32 33 4 5 3 3 3 3 5 3 2 3 5 4 4 4 5 9 0 7 8 8 11 14 13
18 19 21 22 18 15 16 16 16 17 17 18 15 12 19 19 22 18 20 20 18 15 7 20 33 39 29 32 28 17 32 27 12 5 3 3 4 4 1 1 3 6 5 4 4 3 4 10 20 20 22 19 17 15
18 19 23 19 17 15 15 15 14 15 16 19 14 17 21 26 18 13 5 1 5 9 8 4 10 22 20 11 31 33 29 24 11 7 4 4 4 4 3 2 5 7 3 2 2 8 14 18 24 21 20 20 18 15
18 20 21 17 16 14 16 16 14 14 18 18 18 22 24 10 6 6 5 6 9 9 4 6 5 7 5 11 14 21 27 11 9 7 4 6 4 8 2 3 3 6 4 5 10 9 11 11 12 19 17 14 13 12
16 17 17 16 14 13 14 11 14 15 19 16 23 20 8 5 5 7 4 6 6 5 6 3 4 5 9 8 8 13 13 14 12 4 5 3 6 3 4 4 4 5 9 8 6 8 15 24 27 21 17 14 14 13
19 16 14 13 13 12 11 14 11 16 21 18 19 9 6 4 3 3 7 7 7 6 4 3 3 3 1 4 3 11 10 3 4 2 2 6 3 4 4 6 4 6 6 13 19 20 19 14 17 14 13 12 14 14
15 9 10 9 6 8 8 11 12 17 18 19 10 3 2 3 6 7 3 2 2 4 5 3 5 3 7 6 3 3 4 2 2 2 6 2 3 3 6 4 4 8 10 13 17 17 20 17 15 13 13 14 15 13
10 7 7 7 7 7 9 10 12 17 16 11 6 3 6 8 4 2 3 3 3 3 6 7 8 4 8 2 2 3 1 1 1 1 2 2 3 4 5 3 5 7 9 10 11 14 16 18 20 19 16 16 14 14
10 11 10 8 10 8 8 10 13 17 15 12 12 12 7 2 3 2 2 3 3 2 4 4 7 6 6 5 4 2 2 0 2 3 1 3 1 5 2 1 4 6 7 7 8 12 13 12 12 13 12 11 14 15
8 9 14 9 8 7 8 10 13 17 17 6 2 3 2 2 3 3 2 2 2 6 7 7 4 6 3 4 3 1 2 1 3 2 3 2 6 4 4 4 3 5 6 6 7 9 9 8 7 7 6 6 8 10
12 10 9 8 6 7 8 11 13 17 7 2 1 4 2 2 2 2 2 3 4 7 16 16 5 2 2 1 1 2 1 2 1 2 4 2 8 6 6 7 7 9 9 8 8 9 9 10 9 8 6 5 8 9
5 5 8 7 6 7 10 12 14 9 3 3 2 3 3 5 6 7 9 6 6 9 12 8 6 3 1 1 1 2 2 3 3 3 2 8 9 7 6 7 9 11 12 12 11 10 10 9 8 8 7 6 5 6
5 6 10 10 9 9 9 12 11 5 3 3 4 3 5 4 5 4 7 7 9 9 10 4 3 1 1 1 2 4 3 4 3 2 7 10 8 6 4 7 8 9 10 12 13 13 13 12 10 9 7 5 4 4
9 13 11 8 13 11 11 9 4 3 3 3 4 7 11 10 10 10 7 6 9 7 2 3 3 2 1 1 2 3 3 3 6 9 10 9 7 2 2 7 8 8 10 12 12 12 12 12 12 10 8 6 5 4
10 8 9 10 12 11 11 5 4 3 4 6 4 2 6 9 8 9 8 9 5 3 5 2 6 2 3 3 3 3 3 6 10 11 10 7 4 1 2 5 6 9 11 12 12 12 13 12 12 12 11 9 8 7
2 6 9 5 4 8 2 3 4 4 6 5 8 11 10 10 12 13 12 11 8 6 8 4 3 3 3 4 4 4 10 12 12 13 10 7 5 4 4 5 7 9 11 12 13 12 12 13 14 14 12 12 10 8
3 6 7 8 6 3 3 4 5 5 4 3 6 7 7 8 8 9 11 11 8 4 4 4 5 5 6 4 5 5 8 12 12 13 11 9 7 6 5 6 7 9 9 9 10 11 11 10 11 13 13 12 11 9
6 11 13 11 12 8 4 4 5 5 5 5 5 6 6 10 9 8 7 10 9 6 4 14 18 14 13 11 8 7 8 15 13 10 7 8 8 6 6 6 7 9 10 11 13 13 13 14 15 15 14 12 11 10
7 14 12 15 6 4 6 8 5 3 4 5 4 4 6 5 4 4 5 9 8 13 16 21 27 23 23 20 17 13 11 13 14 12 10 8 7 6 5 6 8 9 11 13 14 15 16 17 16 16 15 13 12 11
7 11 7 6 6 6 4 6 5 3 1 2 3 3 3 4 3 3 5 9 12 20 23 26 27 26 23 20 18 17 16 14 14 12 10 9 8 6 7 9 11 14 16 14 14 16 17 17 16 16 15 14 13 11
10 6 5 6 9 3 4 4 4 2 2 2 0 4 4 3 2 3 4 8 21 23 22 23 21 22 19 19 21 20 18 15 14 14 12 11 10 10 10 10 13 16 19 19 18 17 18 19 18 17 16 16 15 12
6 7 7 7 7 4 3 1 1 2 4 4 3 4 3 1 1 3 4 7 13 18 19 20 20 18 19 16 16 17 16 16 16 15 13 14 14 15 16 18 19 21 22 18 15 17 18 20 21 22 21 17 16 15
5 9 11 11 5 7 7 4 6 7 3 3 5 2 1 2 1 6 3 5 10 15 11 11 14 16 15 14 11 12 11 12 15 17 15 17 19 20 22 23 25 27 22 20 20 21 20 19 21 22 22 20 17 17
6 7 10 9 6 6 2 3 4 2 4 6 3 3 2 2 5 5 7 10 13 13 9 4 6 5 2 5 7 8 9 10 13 15 16 18 20 22 22 23 27 25 22 25 26 25 24 22 20 20 21 21 19 16
13 9 7 12 8 7 4 2 5 6 4 7 8 4 6 8 5 4 5 15 14 9 4 8 10 9 9 8 8 10 12 14 16 19 21 23 24 24 25 21 21 23 23 24 26 26 25 23 21 20 21 21 19 14
8 8 12 4 5 7 12 8 7 10 8 14 5 4 5 9 14 14 13 15 13 11 11 11 11 11 12 12 12 13 15 17 18 20 23 24 22 20 22 19 19 23 24 25 25 25 25 23 20 17 16 15 14 12
11 17 10 10 7 8 15 16 9 15 16 19 12 10 14 20 21 19 20 22 22 19 17 18 22 22 21 19 18 17 18 20 21 20 20 19 21 21 23 24 24 23 21 23 23 21 20 19 20 20 19 20 20 16
10 21 9 11 8 20 23 22 22 19 17 17 24 26 27 21 30 32 30 27 29 32 31 31 30 27 25 23 21 23 22 19 17 16 17 19 21 23 23 23 21 17 16 19 20 19 17 15 14 15 16 16 16 16
15 17 11 6 6 14 16 11 8 9 7 10 11 16 15 11 10 18 21 21 22 22 22 23 24 25 25 24 21 17 16 15 15 17 19 21 21 20 19 18 14 13 15 16 15 14 15 14 13 13 12 12 12 13
8 7 5 4 3 5 10 9 8 4 6 5 8 10 12 9 9 10 12 16 16 14 11 8 7 8 8 8 9 10 12 14 16 18 20 20 17 15 17 16 13 14 15 15 15 15 14 11 10 9 9 9 8 9

GFSWCAN_850_spd_033.txt.gz
Wind_Speed
10 13 9 11 14 16 18 17 20 19 13 14 15 13 10 15 9 13 16 9 9 5 16 16 12 8 7 5 2 3 1 3 2 4 3 4 4 5 4 5 7 8 7 4 4 3 8 5 5 5 3 2 6 4
13 11 9 11 14 17 17 15 17 15 15 17 19 12 10 14 8 9 15 14 11 14 19 29 32 30 28 23 11 5 4 4 8 3 1 3 3 2 5 3 1 4 6 5 7 6 5 5 2 3 7 12 3 5
10 9 9 11 15 18 15 13 14 14 17 17 19 16 12 11 14 11 13 14 17 15 23 20 7 8 13 16 22 11 7 6 1 1 5 3 3 4 5 5 4 4 6 3 1 4 7 13 7 6 5 2 5 9
11 11 13 15 16 18 19 14 14 16 18 17 19 20 9 11 15 14 15 15 15 9 6 6 6 9 7 10 16 23 31 10 8 9 5 3 3 6 4 2 3 4 7 5 4 5 7 2 3 4 6 11 12 13
13 14 14 17 21 20 15 14 15 17 15 15 16 17 12 16 18 23 18 17 15 10 5 13 29 11 10 19 27 21 23 30 17 6 4 4 5 4 1 2 3 8 6 4 4 6 2 5 9 14 16 16 15 15
14 14 13 17 20 16 15 13 16 16 14 17 19 14 17 21 22 9 3 2 0 8 4 4 8 11 11 11 16 23 22 15 13 8 5 4 5 5 4 4 5 10 8 8 5 4 8 13 15 10 10 17 13 11
12 11 11 15 12 15 11 13 16 13 16 19 20 17 22 12 6 3 3 3 10 8 4 5 7 5 11 5 6 20 22 10 9 8 5 4 5 9 3 3 5 11 12 8 6 7 9 6 6 16 20 19 15 13
14 13 13 14 14 11 10 13 13 15 16 21 18 21 11 5 5 4 5 7 9 4 4 3 4 5 9 6 6 11 11 13 7 6 5 3 6 3 3 4 7 8 7 7 9 7 11 18 20 21 19 15 13 12
11 11 11 12 9 10 9 12 13 14 18 22 20 11 5 2 1 1 6 9 11 5 3 3 2 3 3 6 5 12 8 5 8 3 3 5 2 3 4 7 12 9 5 5 10 13 14 13 16 14 12 11 12 10
11 8 4 5 6 5 7 11 13 15 20 16 12 3 1 2 7 7 2 1 3 4 5 4 5 3 3 3 2 3 8 3 3 2 7 1 2 5 8 7 8 6 5 8 10 8 12 14 14 14 12 12 14 13
3 4 1 5 4 6 7 12 13 17 18 11 6 3 6 10 4 2 2 3 3 3 6 7 7 4 5 2 3 5 2 1 2 2 3 3 3 3 8 6 4 4 5 6 7 8 10 13 16 17 15 13 14 14
3 3 4 5 6 7 8 12 14 17 17 15 11 11 5 2 2 2 2 2 3 2 4 5 7 8 7 5 2 3 2 1 2 4 1 2 0 6 6 4 2 2 3 3 4 8 10 10 10 11 12 10 7 10
2 2 3 4 5 6 8 11 14 17 22 7 2 2 3 1 2 1 3 2 2 7 7 10 6 5 5 3 2 1 1 1 2 2 3 2 4 5 4 3 3 3 2 2 3 5 6 8 7 9 10 6 5 5
3 3 4 5 3 5 9 11 15 17 7 3 4 4 0 2 2 2 2 2 5 7 14 17 7 3 3 2 0 1 1 1 1 2 4 2 7 7 6 7 6 6 6 6 5 5 7 8 8 8 9 9 9 9
3 2 3 6 3 4 8 11 14 15 4 2 1 2 3 4 6 10 10 8 9 11 13 9 7 4 2 2 1 1 1 2 3 3 2 9 11 8 7 6 6 7 7 8 9 9 10 10 10 10 9 7 7 7
4 4 5 4 5 5 8 11 16 9 2 2 3 2 4 4 5 5 8 8 8 14 14 5 3 3 2 1 1 4 3 3 3 3 7 15 12 9 6 4 3 4 5 7 8 9 10 11 11 11 9 7 6 7
2 6 6 6 8 9 8 8 5 1 2 3 5 7 11 13 12 9 7 7 11 9 2 3 3 2 2 1 2 2 3 3 6 7 14 14 12 9 4 1 2 3 5 6 7 7 9 10 10 10 9 9 7 6
5 5 6 7 7 10 10 5 4 3 4 6 5 3 6 10 12 11 9 11 6 4 5 2 6 3 3 2 3 2 2 3 5 9 13 13 11 8 5 2 1 4 6 7 8 9 9 8 9 10 10 10 9 7
2 4 6 6 6 3 4 3 4 4 7 5 8 13 12 12 15 15 15 13 10 8 8 4 3 3 3 5 4 3 6 9 8 12 12 12 9 7 5 3 3 5 6 7 7 7 8 10 11 12 12 11 10 9
1 3 5 5 6 3 4 4 5 5 4 3 6 6 8 9 12 12 12 11 9 4 4 4 5 5 6 6 4 5 5 10 10 14 14 13 10 8 6 5 4 5 5 6 6 8 8 8 9 11 12 11 10 9
7 11 8 5 4 7 5 4 5 4 5 5 4 6 6 9 9 7 7 9 9 6 5 18 25 22 15 16 14 11 8 9 16 13 9 12 11 10 8 6 5 5 6 8 9 9 10 10 11 12 12 11 10 9
9 9 12 6 5 5 6 6 5 4 4 4 4 4 6 5 4 2 5 9 8 14 18 23 27 26 22 24 24 19 14 11 14 16 13 11 11 12 9 7 5 5 7 9 10 11 12 13 13 13 13 12 11 10
5 6 8 6 6 6 4 5 4 3 1 3 3 2 3 4 3 4 5 9 11 19 23 25 26 25 24 20 20 19 17 16 17 16 14 12 11 10 9 8 7 6 8 10 13 13 13 13 13 12 12 13 13 11
9 5 3 6 11 4 4 4 4 2 2 2 1 4 3 3 2 2 4 7 12 19 19 20 22 22 20 20 21 21 19 18 16 14 14 14 12 11 9 9 9 10 12 14 17 16 16 14 15 15 14 14 14 14
6 7 6 7 8 4 3 2 1 2 4 2 1 4 2 1 1 3 3 7 9 19 19 17 13 14 17 16 14 11 14 16 17 15 14 14 12 12 13 14 14 14 16 17 17 18 17 18 19 20 20 20 18 16
5 10 11 8 5 6 6 5 6 6 3 2 5 2 1 2 1 6 3 5 14 19 19 19 12 7 9 11 8 5 7 11 13 14 13 15 16 17 17 18 19 17 17 20 22 19 19 20 21 21 21 20 20 20
5 7 9 8 5 4 2 2 4 3 4 5 3 3 2 2 6 6 7 6 12 18 18 15 5 1 4 2 4 5 5 7 8 9 10 11 14 15 16 17 20 22 24 24 22 24 24 23 23 22 21 21 21 20
12 8 7 11 7 7 4 2 5 6 4 6 8 4 6 8 5 3 5 10 14 17 18 12 7 5 4 4 4 5 6 8 10 12 14 17 18 20 21 20 22 22 22 24 23 24 26 25 24 23 22 21 20 16
8 7 10 5 5 8 12 8 8 10 8 13 6 5 7 11 19 23 23 20 20 17 17 18 14 13 13 12 12 13 13 13 13 16 19 22 22 20 21 20 19 17 19 23 25 25 25 24 23 22 21 20 19 17
7 14 9 7 6 7 17 17 16 17 18 22 21 18 23 33 35 35 33 34 32 29 27 27 30 27 24 23 23 23 22 19 19 20 23 22 19 18 18 18 20 21 23 24 23 20 19 20 19 19 19 21 23 21
12 21 9 10 9 28 31 28 26 24 22 24 27 29 36 34 40 44 41 39 36 33 34 34 33 33 32 29 27 25 24 22 22 21 19 18 18 19 20 21 21 21 22 21 18 18 18 17 16 17 16 16 15 16
16 19 12 5 7 17 17 12 12 13 15 18 23 27 27 22 20 36 33 29 29 26 24 22 21 21 21 21 21 21 21 21 19 17 17 18 19 19 19 18 16 15 14 14 17 18 18 16 15 15 15 14 12 11
7 8 6 3 3 4 8 7 6 5 8 8 15 23 23 15 12 19 26 25 24 22 21 19 16 12 9 9 10 11 10 11 13 16 18 20 21 20 18 15 10 11 12 15 16 15 14 14 14 12 10 10 10 9

GFSWCAN_850_spd_039.txt.gz
Wind_Speed
4 4 5 5 5 5 7 10 11 12 12 12 16 17 16 16 12 9 5 7 6 4 15 10 7 7 8 7 4 7 4 4 1 5 3 4 6 7 5 5 7 10 6 6 7 5 7 9 6 4 6 7 6 6
4 5 8 7 7 8 9 14 15 12 13 13 16 16 16 17 13 10 12 11 8 8 13 19 19 21 20 13 7 5 3 5 7 4 5 4 6 4 8 4 10 6 6 4 6 4 4 6 4 5 1 1 2 4
5 6 7 7 7 9 10 13 15 13 14 15 16 16 16 16 6 7 17 15 11 9 20 4 2 4 3 11 18 7 4 3 3 6 5 3 6 6 7 9 8 8 10 3 3 7 10 6 8 3 2 2 4 5
5 5 5 7 8 9 10 14 14 15 17 15 17 15 15 16 9 10 11 14 12 6 5 3 9 8 8 4 11 19 20 8 7 11 4 4 4 7 8 5 9 5 12 10 8 9 1 8 10 8 7 5 4 6
4 5 7 8 8 8 10 13 13 18 15 18 13 16 17 17 13 18 14 12 9 5 4 11 20 5 3 10 14 15 14 15 13 5 4 3 8 3 3 3 8 9 8 7 5 7 12 3 14 10 6 4 6 7
5 5 7 8 7 8 12 12 14 12 16 14 14 17 20 17 15 7 3 3 4 1 4 3 6 4 4 3 7 9 11 10 9 6 8 7 11 8 4 10 15 14 16 15 8 4 3 8 7 5 5 6 8 10
5 7 7 8 7 9 13 11 10 13 15 13 16 21 23 14 5 2 1 3 6 8 2 5 4 3 3 2 3 5 8 7 11 8 11 16 9 7 5 9 6 13 13 9 6 6 4 3 3 5 6 10 15 16
6 8 10 11 10 10 11 8 8 11 15 16 19 21 15 6 3 1 4 5 6 4 2 3 4 4 6 3 2 5 4 8 8 8 10 13 8 1 4 12 5 7 9 9 7 7 6 6 6 9 13 15 16 16
10 9 8 7 7 5 4 6 9 13 15 18 18 13 3 2 2 2 6 9 8 4 3 2 2 3 3 5 3 6 6 4 7 5 6 8 4 6 9 6 9 11 9 8 8 6 6 7 9 11 11 11 11 12
13 11 9 7 3 3 4 5 10 15 16 14 11 3 3 2 10 10 2 1 4 3 3 3 4 3 4 6 8 4 7 3 3 8 7 4 3 18 11 3 5 9 8 7 3 2 5 7 6 7 9 10 13 14
13 12 12 4 2 2 5 7 11 14 16 11 5 2 6 8 4 1 2 2 2 3 4 5 6 5 7 4 3 11 3 3 3 4 4 4 4 5 7 5 7 8 7 6 3 1 5 7 8 10 11 11 12 13
12 12 9 4 1 3 5 8 10 14 16 14 8 7 4 3 2 2 2 2 3 3 6 7 12 14 8 6 5 5 3 3 2 5 2 2 2 4 6 6 6 6 5 4 6 5 5 3 4 6 8 10 10 10
16 13 9 7 3 4 6 7 10 15 21 5 2 2 2 1 2 3 5 1 4 7 4 13 8 6 6 5 5 2 3 1 3 2 2 2 3 4 5 5 5 5 5 6 8 5 5 5 4 4 6 8 9 8
12 13 10 7 6 2 2 7 12 17 9 2 2 3 1 1 2 3 2 3 5 7 13 15 10 5 5 3 2 3 1 2 2 2 1 2 5 6 5 6 4 4 5 6 6 5 5 5 5 5 6 8 8 8
12 12 10 9 8 6 3 8 12 16 5 2 1 2 2 3 5 6 8 8 9 13 11 11 8 6 3 4 2 2 2 2 1 1 2 1 7 7 6 6 5 6 6 4 3 2 2 4 6 7 9 10 11 10
11 11 10 9 6 3 4 8 12 11 2 2 3 3 4 3 3 4 8 8 8 12 13 5 3 4 4 3 3 2 2 1 2 2 5 3 8 8 7 6 5 4 3 2 1 1 3 5 6 7 9 10 10 10
12 8 11 11 8 3 5 8 5 4 3 3 4 7 6 8 7 4 5 6 9 7 3 3 3 3 5 3 2 2 3 3 7 11 8 5 10 10 7 6 5 3 1 0 2 4 5 6 7 8 9 9 9 9
7 6 9 10 8 4 8 2 3 4 4 6 4 3 7 8 8 7 4 6 4 3 4 2 4 3 4 4 2 1 4 7 10 9 4 6 9 9 7 4 4 2 2 3 4 5 6 6 7 8 9 10 10 11
6 6 8 10 8 3 3 3 4 3 5 5 8 11 10 10 12 13 11 8 7 7 6 4 4 4 4 4 5 8 7 7 6 9 7 8 10 10 9 7 6 6 5 5 5 5 6 7 8 9 11 11 11 11
9 10 11 11 8 4 3 3 4 4 3 3 7 7 8 8 12 12 11 8 4 2 4 4 6 6 7 11 11 10 11 14 15 16 15 12 13 14 13 12 10 8 7 7 7 7 8 9 9 10 11 11 12 11
13 14 14 13 9 9 3 2 3 4 6 5 7 8 7 10 7 4 3 3 5 5 6 12 18 23 23 24 24 24 25 21 17 14 14 13 12 16 16 15 13 12 10 9 8 8 9 9 10 11 11 11 11 11
12 16 12 12 5 5 4 6 4 3 4 5 6 4 7 5 3 1 4 5 6 8 10 12 18 22 26 27 26 23 22 18 17 20 21 18 18 16 17 18 16 14 12 10 8 8 9 10 11 11 11 11 11 12
8 13 7 6 5 4 3 4 3 3 3 2 4 3 4 3 4 3 3 6 8 10 12 17 19 22 25 25 22 18 18 18 18 18 19 21 20 17 16 15 15 15 13 11 10 10 11 12 13 13 13 13 13 13
8 6 3 4 7 3 3 3 4 2 3 3 2 4 3 3 3 2 3 5 9 7 9 13 16 21 20 17 17 14 11 13 16 17 16 18 19 17 15 15 15 14 14 13 13 13 14 14 15 15 15 15 14 15
5 6 6 6 6 5 4 3 3 3 4 4 3 4 2 2 2 3 4 6 9 3 6 11 17 17 19 21 16 12 8 11 15 14 14 16 16 15 14 15 15 15 15 16 16 16 17 18 18 18 17 16 17 18
6 11 10 8 7 6 7 4 6 6 3 4 6 3 1 2 3 5 4 7 9 1 7 13 16 22 23 20 19 16 15 13 10 11 9 10 11 13 15 16 17 17 17 17 19 21 21 21 20 21 19 19 19 20
6 8 9 11 6 5 4 3 3 3 5 6 3 4 3 4 6 5 6 8 4 7 13 16 18 20 20 23 22 19 15 14 14 11 8 9 11 13 15 17 18 18 20 20 21 21 21 22 22 21 21 20 20 21
11 9 8 11 7 8 3 4 4 5 4 7 5 5 6 7 4 2 2 7 18 23 27 28 32 33 32 30 28 25 24 21 19 21 20 17 15 15 15 17 18 19 21 23 23 23 23 22 22 21 21 23 23 21
6 8 11 6 6 7 11 8 7 11 16 14 5 5 8 17 27 28 32 35 38 42 46 47 45 40 41 39 36 33 28 28 26 26 27 27 25 22 20 19 20 21 22 22 23 23 21 21 23 23 23 23 22 22
8 17 8 9 5 7 18 19 23 24 21 25 26 25 30 37 42 43 43 42 43 44 45 46 46 43 43 41 38 37 32 29 30 31 33 33 31 27 25 23 22 21 20 19 19 21 21 22 22 22 21 22 22 22
9 23 7 11 9 24 27 26 28 27 25 24 29 31 39 41 47 45 42 42 40 42 43 44 44 40 38 37 37 33 30 27 24 24 26 29 28 27 25 24 22 21 20 20 20 20 20 20 19 18 18 19 19 19
14 16 9 5 9 18 16 9 10 15 18 19 21 24 24 18 16 32 36 32 34 38 38 35 35 32 29 26 24 23 24 22 22 20 17 16 16 18 19 19 19 19 20 20 20 20 19 18 18 18 19 18 16 16
6 7 6 6 6 6 10 8 5 6 8 8 15 24 21 12 11 18 28 29 31 34 32 30 29 28 27 26 23 21 20 17 13 11 11 13 14 14 16 17 18 18 18 17 15 15 14 14 15 15 15 14 13 13

GFSWCAN_850_spd_042.txt.gz
Wind_Speed
8 8 5 3 3 1 5 9 14 14 13 13 16 17 14 18 17 13 9 15 7 4 14 3 5 7 7 4 2 8 4 1 2 2 2 3 3 5 3 3 6 7 5 4 4 4 7 8 4 1 5 10 11 11
9 7 6 4 3 3 6 9 12 15 13 16 15 15 15 14 14 10 10 13 17 8 14 24 18 18 14 10 4 4 2 3 5 3 3 3 3 2 6 3 6 4 6 4 6 5 5 11 5 9 8 9 8 11
9 7 4 4 3 3 6 9 12 15 14 18 15 15 15 16 14 8 14 11 15 9 17 3 4 4 6 10 18 5 1 1 2 6 4 3 4 2 3 5 5 4 3 3 2 4 4 9 8 7 5 6 8 9
9 6 4 5 3 4 6 10 13 12 16 13 16 13 15 15 16 13 14 15 9 6 4 4 7 11 18 8 11 19 12 4 6 9 2 3 3 8 3 4 3 5 8 5 5 6 1 6 14 13 9 7 7 5
9 6 4 3 1 3 8 11 9 11 10 13 10 11 15 17 19 13 10 5 6 3 4 10 12 3 5 3 4 6 10 11 8 3 3 3 5 5 6 4 4 6 6 4 4 9 10 3 14 12 11 7 6 5
9 6 4 3 1 5 8 10 10 9 11 12 11 13 16 20 12 5 1 3 5 2 4 3 6 3 3 1 2 8 8 9 8 4 4 5 8 2 4 4 8 16 17 16 4 5 11 15 15 14 9 8 7 7
9 6 5 3 2 7 8 10 9 8 11 13 12 16 18 11 5 2 2 5 6 8 1 4 5 3 5 3 1 2 5 6 7 5 7 9 6 3 3 6 16 23 19 14 6 9 6 7 6 7 7 6 7 10
9 8 7 4 5 7 9 8 8 10 14 15 15 14 9 4 6 3 6 6 6 3 2 2 3 4 2 1 2 5 5 6 6 6 5 7 9 12 6 15 15 13 13 12 11 11 7 10 7 5 6 7 9 11
11 9 7 6 4 2 4 5 8 13 16 16 12 6 6 5 4 5 10 8 4 2 4 2 2 3 4 4 4 6 6 3 7 4 5 5 5 6 10 20 18 22 7 11 11 7 6 5 5 5 6 6 7 9
14 12 8 6 3 2 2 4 10 14 14 8 6 5 3 6 11 5 3 3 2 1 1 2 3 3 5 4 4 3 7 3 3 6 7 5 5 23 16 11 11 3 4 9 8 5 4 2 1 4 6 7 9 11
16 15 10 8 4 3 1 5 10 13 9 5 3 3 6 7 4 2 2 2 1 2 3 4 6 4 9 4 3 8 2 2 3 3 3 2 2 3 7 10 15 10 7 6 4 3 2 0 1 2 4 6 9 11
16 15 13 11 7 3 1 4 8 13 11 5 2 5 5 5 3 3 2 1 1 4 5 5 9 12 8 6 4 5 3 3 4 5 3 2 2 2 2 4 7 7 6 6 7 6 6 4 2 2 2 4 7 8
17 17 15 12 9 3 1 5 9 14 10 3 2 3 4 3 4 3 5 2 3 4 4 11 9 5 6 6 6 3 3 3 5 2 2 1 1 2 2 3 4 5 6 6 7 5 2 1 3 4 5 6 8 9
18 16 12 9 5 3 3 7 9 12 3 2 3 4 2 1 2 2 2 2 5 8 16 18 10 4 5 3 3 3 1 2 2 2 3 3 2 2 2 2 2 2 4 6 7 4 1 3 5 4 6 6 7 8
14 14 12 9 8 7 6 5 10 10 2 2 1 1 2 2 3 5 7 7 11 15 15 13 8 5 3 4 3 3 2 2 1 2 2 11 3 1 2 3 3 3 4 4 3 2 3 4 5 7 8 9 10 10
17 12 12 10 11 9 7 7 10 5 2 1 1 1 3 2 3 2 4 5 7 11 12 4 3 3 3 4 3 3 3 2 3 3 13 13 4 3 3 4 4 3 4 3 3 3 5 6 6 7 8 10 10 11
14 8 11 13 11 7 6 8 4 2 2 2 2 7 8 7 8 4 3 2 7 5 2 3 4 3 4 3 3 2 3 3 10 16 16 10 6 4 3 2 2 2 3 4 5 6 7 8 7 7 8 9 9 10
10 8 10 11 10 6 6 4 3 3 3 5 3 1 5 8 8 7 4 6 1 0 2 2 3 3 4 4 4 2 5 13 11 13 17 13 6 5 4 3 2 3 4 3 5 6 6 6 7 7 9 9 9 9
8 7 10 10 9 5 2 3 3 3 4 4 7 10 8 9 12 13 12 10 7 4 3 3 4 4 4 6 7 14 14 14 16 19 20 17 12 9 9 8 6 7 7 5 7 6 6 7 8 8 10 10 10 10
8 9 11 11 9 2 2 2 4 3 2 3 5 7 7 8 11 11 10 9 5 3 5 5 5 7 9 15 19 25 26 26 24 24 22 15 14 13 15 15 12 10 8 8 8 7 7 7 7 8 10 10 10 10
15 14 12 11 7 5 2 2 2 3 4 3 6 8 5 10 10 6 4 4 6 6 7 15 21 21 20 23 24 28 28 24 22 18 21 21 17 14 13 14 16 15 13 11 10 8 8 8 8 9 10 11 10 10
14 15 10 10 4 3 2 4 3 3 4 4 5 5 6 5 5 5 6 5 7 10 12 11 12 15 22 26 27 24 24 24 23 22 20 22 23 19 16 13 16 18 17 14 12 10 9 8 8 9 10 10 11 11
11 13 6 5 4 3 3 5 4 3 2 2 3 3 5 4 4 4 5 7 8 11 10 9 11 13 17 17 16 16 17 16 14 14 16 19 20 19 18 17 16 14 15 14 13 11 10 9 10 10 11 12 13 13
9 7 3 3 7 2 3 3 4 3 2 3 2 4 4 5 3 4 4 6 14 11 6 3 6 12 15 19 22 20 17 16 16 16 14 15 18 17 16 15 14 14 13 13 13 13 12 12 13 14 15 16 16 15
4 6 6 5 6 5 3 3 3 3 4 4 2 4 3 2 2 3 4 7 15 13 9 2 6 11 13 18 20 22 21 19 18 20 15 16 14 13 12 12 13 13 13 14 14 14 14 15 17 18 19 19 19 18
5 10 8 9 6 6 7 4 6 7 3 2 6 4 1 1 1 7 4 8 16 16 11 3 4 10 14 18 21 22 23 23 22 19 18 19 14 11 10 13 14 13 13 13 14 16 17 19 21 22 21 21 20 20
5 7 9 10 5 5 3 2 3 3 3 5 3 3 3 3 6 7 9 11 12 12 4 14 19 22 25 29 31 30 30 29 26 23 22 22 19 17 16 17 16 14 15 15 16 18 20 21 21 21 22 21 21 20
11 10 8 12 8 9 4 4 5 6 5 7 4 5 5 7 5 3 3 1 7 23 33 35 36 36 42 42 37 35 35 32 31 29 28 26 24 25 23 21 19 18 17 18 19 20 21 21 22 22 22 21 20 21
6 8 11 6 5 6 11 9 8 12 14 10 5 5 11 29 30 31 34 36 37 39 45 48 48 41 42 43 43 42 39 36 34 33 32 32 30 29 25 26 24 22 21 22 23 23 23 22 22 21 21 23 23 23
7 14 9 9 6 7 14 18 26 26 24 25 28 30 36 42 44 41 42 43 46 47 42 40 43 44 44 46 46 44 39 34 32 30 32 34 33 28 26 26 25 24 23 22 22 22 22 21 22 22 22 22 22 21
7 21 8 11 8 21 30 26 27 30 31 32 34 34 43 41 47 46 44 44 40 37 39 41 40 39 40 41 40 39 36 28 27 24 21 22 23 24 25 24 23 23 23 22 22 22 21 22 21 21 21 20 18 19
14 14 8 3 6 15 16 13 16 19 22 23 27 29 30 23 23 36 40 30 28 31 35 34 36 39 34 33 30 26 23 22 20 20 20 20 20 18 18 18 19 19 20 19 19 19 19 19 19 18 17 16 17 18
7 8 8 5 5 5 7 7 5 6 9 10 19 29 29 21 13 31 34 35 31 29 29 33 35 34 31 28 26 23 22 21 19 17 15 13 11 12 12 13 14 15 16 16 17 16 14 13 12 12 14 14 14 13

GFSWCAN_850_spd_048.txt.gz
Wind_Speed
25 20 18 18 18 13 8 3 3 8 7 10 12 12 11 12 13 11 8 10 8 5 6 3 2 7 10 3 1 7 4 3 4 1 1 2 1 3 2 4 5 6 5 3 4 3 7 3 2 5 4 3 4 2
25 21 20 20 17 12 7 3 2 5 7 7 9 10 9 10 11 12 6 8 11 4 4 5 3 6 6 10 3 3 1 4 5 2 2 3 2 1 2 3 2 3 7 5 7 5 5 6 7 8 5 4 1 3
26 24 22 19 16 12 8 4 1 3 5 8 8 6 7 10 10 13 9 8 6 4 2 4 6 5 10 7 6 3 1 2 3 7 3 2 3 2 2 4 3 4 5 3 2 5 8 11 12 10 8 6 4 5
28 25 22 19 16 12 7 3 1 5 6 7 7 5 7 10 14 11 5 3 4 3 1 2 8 9 9 5 5 8 9 2 2 9 2 2 2 3 2 4 1 4 1 5 5 5 6 12 13 15 13 10 8 9
29 26 23 20 17 12 8 3 3 5 5 6 7 6 9 12 12 4 4 8 8 3 1 4 4 8 8 4 3 2 10 12 6 1 1 3 4 3 3 2 5 3 4 3 4 7 10 19 18 18 18 14 12 12
30 27 25 22 18 12 7 4 4 5 6 7 9 10 11 8 3 3 1 3 5 4 2 2 3 4 7 6 6 4 3 3 3 2 4 5 4 2 1 3 10 16 17 3 6 20 20 24 9 10 18 14 13 11
32 29 26 23 18 12 8 5 4 4 7 10 10 7 4 5 3 1 1 3 4 3 3 2 4 2 5 4 3 2 5 4 4 3 4 3 3 4 2 4 7 14 22 22 23 23 15 19 9 14 16 15 12 9
33 30 27 23 18 13 9 6 3 5 9 10 5 5 7 5 3 2 3 2 1 3 3 2 3 3 3 2 2 2 2 4 5 3 3 3 2 3 4 15 25 26 26 25 21 27 22 14 13 17 15 12 10 8
34 31 28 23 19 13 10 6 4 6 10 7 7 7 5 6 6 7 5 5 7 2 3 3 1 3 5 3 2 3 3 2 3 3 4 4 2 4 11 17 27 25 17 16 16 16 7 14 17 12 10 8 7 7
33 31 27 23 19 14 10 6 4 6 8 6 5 4 4 4 3 3 4 4 4 5 4 2 1 3 4 2 2 3 4 2 1 4 5 3 3 19 24 18 17 15 11 13 19 20 4 7 9 9 6 5 4 4
33 30 27 23 19 15 11 8 4 4 7 4 4 4 4 4 4 3 4 4 5 3 4 3 4 5 6 2 2 3 2 2 1 3 3 2 2 7 23 17 10 5 7 10 12 7 5 11 8 6 5 4 3 3
33 29 26 23 19 15 12 8 4 4 5 4 7 8 4 3 2 4 2 4 2 2 4 2 6 9 6 4 4 3 2 3 5 8 3 1 3 21 21 20 15 10 7 6 4 3 3 5 5 4 4 3 1 2
31 28 25 21 18 15 12 9 5 3 7 8 4 4 2 3 5 4 3 5 3 3 3 8 7 4 5 4 5 3 3 4 9 3 1 0 14 25 20 18 16 10 7 7 6 3 4 5 5 4 3 2 2 4
31 27 24 21 17 15 12 9 6 5 5 3 3 3 3 3 2 4 4 4 3 5 13 13 5 3 4 2 3 4 3 3 1 7 3 7 25 28 20 14 15 12 8 5 3 2 3 4 2 2 1 2 2 3
29 26 23 20 17 14 10 7 6 4 4 4 4 3 3 1 1 1 3 4 4 8 12 7 4 3 3 3 2 4 3 6 3 2 3 15 25 27 20 15 11 11 9 5 2 1 3 5 1 1 2 3 4 4
29 25 22 21 17 13 9 6 4 3 4 3 3 3 3 2 1 2 4 5 4 7 10 2 3 2 3 3 3 3 3 4 3 2 14 20 24 24 22 15 11 9 7 6 6 3 4 2 2 3 4 5 4 4
32 20 24 21 18 14 9 5 3 3 3 4 3 5 4 3 4 4 4 2 3 4 0 1 2 6 4 3 3 2 3 2 5 13 18 21 25 25 23 19 12 8 8 8 9 8 7 2 2 5 5 5 5 5
23 20 24 20 17 14 9 4 3 3 2 4 4 6 5 5 5 6 5 5 2 3 2 3 2 2 4 4 4 3 4 7 15 21 25 27 26 23 19 17 15 14 15 11 8 2 4 5 4 6 6 6 6 6
20 24 21 17 16 5 3 3 3 3 2 4 3 6 5 4 7 9 8 6 6 6 3 2 4 4 4 9 9 8 8 18 24 30 29 24 20 16 15 13 15 16 15 12 10 10 8 8 7 7 7 7 7 6
22 22 19 18 13 3 3 3 4 2 3 4 4 5 4 5 8 9 7 6 8 3 5 5 6 10 14 18 13 14 20 20 21 23 25 22 20 17 13 14 15 15 15 14 12 12 8 8 9 8 8 8 7 7
28 23 17 14 7 3 4 4 3 3 2 4 6 5 5 9 8 8 4 6 9 5 8 18 28 30 25 23 20 18 18 13 11 14 19 23 21 19 15 12 13 15 15 15 15 14 11 10 12 10 9 8 8 7
24 21 14 7 3 4 4 3 2 4 4 3 3 4 4 4 5 4 6 7 7 14 20 27 27 23 14 10 10 9 7 7 9 12 15 17 20 18 17 15 14 15 15 16 15 18 17 13 13 12 10 9 8 8
23 13 7 5 3 3 2 5 3 3 1 2 2 2 4 4 4 4 5 8 12 29 30 29 29 24 20 12 7 2 4 8 11 12 15 16 16 16 17 19 16 15 16 15 14 17 16 15 15 13 12 10 10 10
13 7 4 4 3 4 4 4 4 3 1 1 2 4 4 3 3 2 3 10 34 35 33 32 29 27 17 13 9 1 6 13 14 16 16 19 18 16 18 18 18 16 14 14 13 13 13 15 15 15 14 13 12 13
5 3 4 3 3 5 2 1 2 2 3 2 2 4 2 2 1 2 5 22 22 23 27 26 18 18 20 16 9 7 11 20 22 24 20 19 20 21 20 19 19 17 15 15 12 12 11 12 14 15 15 16 16 17
3 4 5 11 4 5 6 3 4 6 3 2 6 3 2 2 1 7 5 12 7 17 24 23 18 18 24 18 13 17 28 29 30 31 30 25 23 25 27 26 25 21 16 15 14 13 13 13 15 16 18 18 17 20
4 5 5 7 5 5 3 3 3 3 3 5 3 3 2 3 6 6 6 6 7 13 22 24 13 6 13 20 28 34 34 33 34 36 33 32 30 28 27 29 30 26 23 22 22 18 16 16 17 18 18 18 19 20
5 11 7 11 7 8 5 4 4 6 5 7 7 4 6 8 6 8 17 25 33 36 37 39 34 30 34 38 41 41 41 38 37 38 36 35 32 29 26 25 26 23 21 22 24 25 22 21 21 21 21 21 20 21
6 8 12 7 4 5 9 10 9 10 13 14 7 5 11 28 33 37 43 44 46 47 44 42 39 35 37 39 40 39 39 39 35 36 37 35 33 30 26 26 23 20 20 22 22 24 24 23 23 24 23 23 23 22
8 13 7 7 7 7 12 16 20 23 23 25 28 31 36 43 47 43 44 46 46 46 45 42 40 40 40 38 39 39 37 36 34 31 30 28 28 29 28 26 23 23 22 20 19 19 22 23 22 23 22 21 20 19
9 19 6 8 7 12 20 21 26 29 31 34 34 34 42 44 48 45 44 41 37 37 36 35 33 32 33 31 31 32 31 25 24 24 24 26 26 27 25 24 22 20 18 16 15 15 16 18 17 18 19 19 19 20
11 11 7 3 6 9 11 11 11 11 19 22 29 31 30 21 21 38 31 28 27 27 25 26 27 28 28 29 29 29 29 28 27 26 27 27 27 25 23 23 22 20 18 17 17 16 16 16 17 17 17 17 18 18
5 7 7 5 4 4 6 4 4 6 9 11 22 22 17 8 9 13 23 22 22 23 23 24 23 24 27 28 28 27 25 25 25 25 24 22 22 22 21 19 15 13 11 11 11 11 11 12 13 14 14 13 13 13

GFSWCAN_850_spd_051.txt.gz
Wind_Speed
35 30 27 24 23 20 16 11 7 6 5 6 8 8 9 10 11 11 10 11 9 2 4 4 3 4 4 1 0 5 2 4 4 1 0 1 2 2 1 3 5 6 5 3 3 3 7 3 2 4 5 7 9 12
35 33 28 25 25 22 18 12 10 6 4 2 4 5 7 8 9 12 8 8 6 2 2 2 5 7 10 4 2 3 4 2 4 2 2 2 2 2 0 2 2 2 5 4 7 5 5 5 10 9 10 11 8 7
37 33 30 27 26 24 19 14 9 5 5 3 2 3 4 6 8 11 6 6 6 3 5 3 3 5 5 5 3 2 1 3 4 6 2 2 3 2 2 3 2 3 1 3 1 5 10 21 20 15 14 11 8 5
40 34 32 29 28 24 19 14 9 7 5 3 3 2 2 5 8 6 5 8 6 2 3 1 5 5 8 3 3 7 6 2 2 4 1 0 2 5 2 3 2 4 4 3 6 7 13 16 14 15 15 13 10 6
39 37 34 31 29 24 18 14 10 8 5 3 3 3 4 6 5 5 6 10 8 2 2 0 2 5 6 4 3 1 9 6 2 1 1 2 3 3 2 2 4 5 5 3 5 7 9 17 17 23 18 20 14 12
41 39 35 33 29 24 19 14 12 8 6 4 5 5 6 8 7 5 3 5 8 4 0 1 1 1 5 4 3 0 2 2 1 2 2 3 3 2 1 3 9 11 8 7 7 23 26 30 30 26 23 18 15 12
43 41 37 34 29 24 20 16 13 9 6 7 9 11 11 10 10 7 4 5 7 2 3 3 4 2 5 3 2 2 3 0 1 1 2 2 3 2 2 3 6 10 23 26 25 23 20 23 19 22 19 17 16 14
45 42 38 34 30 25 21 17 14 10 9 12 14 14 13 11 12 11 9 6 2 3 3 2 3 3 6 3 1 2 4 3 2 2 2 3 2 2 3 11 21 24 27 26 20 18 18 25 30 22 15 17 16 13
47 43 39 36 31 26 23 20 14 13 16 16 15 14 12 7 5 5 5 7 8 5 3 3 2 3 8 4 3 1 2 2 2 2 3 3 1 3 5 18 27 28 23 26 30 18 21 16 18 15 17 14 11 10
46 43 40 36 31 27 24 21 15 16 19 15 12 6 5 4 4 3 3 5 6 6 5 3 3 3 8 5 3 1 2 1 2 3 5 2 2 13 17 25 24 24 22 19 17 22 24 24 12 13 11 6 8 7
45 42 39 35 31 28 24 21 16 17 19 10 5 5 9 6 3 4 3 5 6 4 5 5 3 4 5 3 3 3 2 2 2 3 3 2 2 13 29 26 24 22 19 16 16 17 14 11 9 6 4 7 5 5
44 42 38 34 31 27 23 19 16 13 9 10 10 13 6 3 3 5 1 2 3 2 4 3 6 7 6 5 4 3 3 1 4 8 2 1 1 20 26 26 24 22 19 15 14 11 7 1 3 5 5 4 3 2
43 40 35 33 29 26 22 18 15 13 15 14 5 4 2 3 7 5 1 4 3 3 3 8 7 5 4 4 6 2 3 3 8 1 2 3 6 20 25 23 22 21 18 15 12 10 9 3 2 2 0 2 3 4
41 36 33 31 27 24 20 17 16 18 6 4 4 4 3 3 1 4 4 4 2 2 8 8 3 2 3 3 3 4 3 3 2 1 4 2 10 20 22 22 20 19 17 15 12 9 7 4 1 4 4 4 4 4
38 36 32 27 24 20 18 16 13 10 4 4 3 2 2 4 3 6 6 4 2 2 7 3 1 1 2 2 2 4 3 3 2 3 2 10 21 21 22 22 19 16 14 14 12 10 7 5 2 3 4 5 5 4
39 34 31 28 22 19 17 15 12 6 5 4 4 5 5 4 3 4 4 3 3 2 3 3 2 1 2 1 3 5 3 5 4 3 8 19 26 27 26 22 18 16 13 12 13 11 7 5 4 5 4 6 5 5
42 31 33 28 24 21 19 14 6 4 4 4 3 8 6 5 6 5 5 5 3 1 2 4 2 7 2 2 4 4 4 3 4 11 21 26 29 30 26 22 17 13 14 12 14 14 12 10 9 9 4 7 7 6
28 34 32 28 24 19 14 5 4 4 3 4 5 9 7 6 6 4 4 5 4 4 4 3 1 3 5 5 4 4 7 10 12 21 25 26 27 25 21 20 17 12 14 13 12 8 3 7 6 4 7 8 8 7
32 34 29 25 21 9 5 3 3 4 3 5 8 11 6 5 5 3 5 5 6 5 2 2 3 3 4 9 10 13 13 13 21 25 22 19 21 22 21 19 16 12 12 12 11 12 13 10 10 9 9 9 8 7
34 30 27 23 13 4 5 5 4 4 3 6 6 7 4 4 7 6 6 7 8 3 3 4 6 9 20 30 27 25 22 22 23 23 19 16 18 22 18 18 16 15 15 13 11 11 13 13 11 8 9 9 9 7
34 27 24 18 8 6 5 5 3 4 4 3 4 5 3 6 6 7 6 14 7 6 9 16 25 29 28 29 28 28 29 24 21 18 18 19 17 19 18 16 16 15 16 16 15 12 12 13 11 10 10 10 9 8
34 27 23 9 4 4 5 4 4 6 2 2 1 3 3 3 4 4 8 6 8 16 23 29 32 30 32 32 32 23 21 18 14 12 12 15 18 19 19 18 19 19 17 15 16 16 15 13 13 14 11 11 11 9
27 21 8 4 4 4 3 6 2 1 2 2 1 2 3 3 5 5 5 8 13 26 28 30 33 33 33 33 32 28 19 12 9 10 12 15 16 16 19 19 19 20 20 16 13 15 16 14 15 15 15 14 13 11
16 5 4 4 4 4 5 3 2 2 1 1 1 3 3 3 3 3 3 10 27 27 24 19 19 23 24 25 21 18 14 5 9 14 15 17 18 18 19 21 21 20 19 18 16 15 12 12 13 14 16 16 14 13
6 3 3 4 4 5 3 2 2 2 3 3 3 4 1 3 1 3 4 13 15 12 2 12 20 27 27 26 24 17 17 15 17 21 25 25 26 28 27 25 25 23 21 19 16 14 12 12 14 14 15 16 16 15
5 2 3 7 4 4 5 4 4 5 3 2 5 1 2 3 1 6 5 11 15 11 10 13 23 28 29 28 23 21 23 19 24 30 35 34 33 33 34 33 33 29 22 20 18 17 15 13 14 15 15 16 17 17
4 3 4 6 7 8 5 3 4 3 3 5 3 3 3 2 6 6 11 16 16 14 15 27 34 37 35 33 30 25 27 31 36 40 41 42 39 34 33 32 32 28 23 22 21 21 21 20 18 17 17 18 19 19
3 7 6 10 4 5 5 4 5 6 4 6 8 4 6 8 5 6 14 21 32 37 42 47 47 47 47 43 37 36 37 39 42 44 44 42 37 32 29 27 23 22 24 24 22 22 23 23 24 23 22 22 21 21
4 9 10 5 3 5 9 10 10 9 8 13 8 4 9 24 33 37 43 45 49 51 50 49 48 44 42 38 37 37 35 34 33 39 39 36 32 31 24 22 21 22 24 24 22 22 22 23 23 24 24 24 23 22
6 13 6 7 7 6 8 13 10 14 15 18 22 26 33 41 44 43 45 45 46 44 41 38 34 31 32 32 31 30 26 25 25 28 31 30 24 17 18 20 20 21 22 22 21 19 20 20 20 19 19 19 20 21
9 14 4 6 6 5 13 16 19 23 26 29 29 30 38 39 42 42 40 39 27 24 25 26 26 27 29 29 27 28 29 23 21 21 21 22 19 17 19 21 21 22 22 21 20 17 16 16 16 16 15 16 17 18
8 9 7 3 5 6 9 9 10 10 13 18 23 26 24 20 16 31 22 19 22 23 22 23 24 26 27 29 28 28 29 29 27 25 25 25 24 22 22 21 21 21 21 19 17 16 16 15 15 15 15 16 17 17
5 5 5 3 3 3 5 4 4 6 6 7 14 18 15 8 9 9 16 16 17 21 23 24 28 26 21 21 23 23 23 24 23 21 22 22 21 20 19 18 17 16 15 13 11 10 9 10 11 12 13 13 14 13

GFSWCAN_850_spd_054.txt.gz
Wind_Speed
47 37 35 33 28 24 22 17 13 12 10 8 6 6 6 7 9 9 10 10 6 6 6 4 3 2 1 2 1 5 1 4 4 2 2 1 1 0 1 2 4 5 4 3 2 3 6 3 1 3 4 8 13 16
42 40 34 33 29 27 23 18 15 13 10 7 6 6 6 7 8 8 9 10 12 7 5 6 5 6 8 1 3 2 2 1 3 1 2 1 1 1 1 2 2 2 4 2 6 5 4 3 7 11 12 18 15 15
46 43 38 35 31 29 25 20 17 13 11 8 7 6 4 5 8 8 11 12 17 11 7 3 2 5 5 4 2 3 1 1 2 4 3 1 1 2 1 2 3 2 1 2 3 4 5 18 15 12 19 24 22 15
47 43 39 36 35 32 27 22 18 14 12 9 7 6 4 4 7 10 13 12 9 8 4 1 5 6 8 5 2 2 2 2 2 4 2 2 2 3 1 3 2 3 6 3 6 6 16 7 16 22 31 28 23 18
47 42 40 37 37 33 27 24 20 17 13 9 8 7 6 6 11 11 12 12 8 5 4 2 4 8 8 6 6 5 2 2 4 3 2 0 1 2 1 2 3 2 2 2 4 1 5 16 32 35 34 30 27 19
50 47 44 41 39 33 29 26 22 18 14 11 10 10 12 12 11 6 5 9 6 6 4 2 2 5 8 7 7 5 5 2 1 3 2 3 1 1 1 2 4 7 10 15 10 26 28 32 29 30 29 31 31 20
52 48 45 42 39 34 31 27 24 19 16 15 18 17 16 14 9 7 7 5 6 5 3 3 3 4 8 6 5 4 1 2 2 1 0 1 2 3 0 2 3 23 26 30 28 25 20 20 24 28 33 33 27 20
53 50 46 44 40 36 32 28 25 21 22 23 23 20 22 19 21 22 18 9 5 6 5 3 3 1 11 5 3 2 1 1 1 3 2 1 2 3 2 12 23 29 30 24 21 24 30 30 29 30 28 24 19 20
60 52 49 46 41 37 32 29 26 25 28 27 25 22 13 6 6 9 12 13 15 8 4 4 1 3 9 4 2 1 1 2 1 2 1 1 1 1 8 16 23 26 21 28 29 27 27 27 31 30 28 17 17 19
54 53 51 46 43 37 33 30 27 31 31 27 17 6 4 6 10 8 6 4 5 5 5 4 0 3 4 4 2 0 2 2 1 1 3 1 2 14 12 20 21 22 22 22 23 23 27 29 26 20 14 11 11 14
53 52 50 48 42 37 34 31 32 35 30 17 7 4 16 13 5 4 4 4 4 4 2 0 3 3 1 1 2 1 1 2 2 1 1 0 3 2 14 20 19 18 20 19 16 20 19 19 19 10 8 5 2 7
55 52 50 45 40 37 33 32 36 34 16 11 10 17 9 4 4 6 1 3 3 2 2 2 3 3 2 3 2 1 1 1 2 6 2 2 2 10 22 25 26 23 22 22 18 17 16 16 12 5 4 3 3 3
55 51 48 42 39 36 31 30 32 15 19 21 5 4 2 2 7 5 2 3 1 3 4 2 3 1 2 2 3 1 1 1 9 2 3 3 4 17 24 25 29 27 24 23 21 16 13 12 11 6 5 5 4 4
53 49 44 40 38 33 29 32 23 28 6 4 5 4 2 1 1 4 5 5 4 3 2 2 1 1 1 1 2 2 1 2 0 1 5 3 9 19 25 26 28 29 25 24 22 18 15 12 10 6 5 6 8 8
50 45 41 37 35 30 27 27 31 12 4 3 3 2 1 6 6 8 9 7 5 2 1 1 1 2 2 2 2 1 2 3 5 4 3 5 17 24 27 28 26 26 24 22 21 19 16 13 11 6 6 6 8 8
48 41 37 35 31 29 28 30 21 7 4 3 4 6 8 6 3 6 8 7 6 2 1 3 2 3 3 1 3 5 2 6 4 3 4 16 23 25 26 26 25 22 22 19 21 20 18 16 13 9 6 6 5 6
49 43 39 35 32 29 27 19 8 4 3 3 4 11 9 10 10 10 9 8 8 3 2 4 2 6 1 2 4 4 4 3 2 9 13 20 22 23 25 26 23 21 21 16 17 20 19 16 12 11 11 8 7 9
37 47 42 37 35 29 17 6 5 4 4 5 5 11 7 12 14 11 9 10 7 5 4 3 3 2 4 4 4 4 6 10 17 16 20 23 19 17 20 23 23 22 18 16 16 18 18 15 12 8 7 2 7 8
51 47 39 34 28 14 5 4 3 5 4 6 13 16 10 11 10 10 10 11 9 6 3 3 1 3 4 9 10 17 22 22 27 28 29 26 18 15 18 19 19 20 17 17 17 19 18 19 21 13 10 9 9 11
43 40 36 30 17 5 5 5 5 5 5 7 9 9 7 6 11 11 11 11 11 5 4 3 6 8 13 23 25 24 23 24 26 31 34 26 14 15 14 17 19 21 21 18 17 18 18 18 18 18 17 14 12 9
41 35 30 17 10 7 6 5 4 5 9 5 9 7 3 7 6 9 10 13 9 6 8 13 20 27 26 26 27 29 28 24 23 22 26 25 17 16 16 18 18 18 20 21 20 18 16 19 19 15 17 14 10 12
39 34 24 11 5 5 6 5 6 8 5 6 6 4 3 3 4 5 8 8 8 15 17 24 24 25 26 28 27 25 27 27 25 24 19 15 17 18 19 19 21 20 20 20 20 20 17 16 17 17 17 16 15 12
37 26 7 5 5 4 4 5 3 4 4 2 2 2 1 1 3 6 5 9 11 21 21 24 23 17 13 15 21 23 24 21 23 18 11 7 9 12 18 21 22 23 24 23 23 22 20 17 16 18 17 17 15 15
21 5 4 4 5 4 4 3 4 4 3 3 2 2 2 1 1 2 3 10 27 25 23 18 7 6 12 20 26 29 29 21 17 13 9 7 12 16 20 23 25 26 26 28 26 22 20 18 16 16 17 16 17 17
5 5 4 6 5 5 4 2 2 3 2 1 2 2 1 2 1 2 4 9 12 12 9 12 12 11 16 25 34 33 30 31 20 23 19 17 19 26 29 32 37 38 34 32 26 22 20 17 16 15 16 16 16 17
6 3 3 4 3 4 5 4 4 4 3 2 4 1 2 2 0 6 5 8 14 16 14 18 22 22 27 31 37 38 38 33 30 26 29 26 29 34 35 38 43 45 36 28 27 26 25 23 22 20 17 16 17 17
5 2 4 5 8 10 6 5 5 4 3 5 3 3 3 1 6 6 7 8 10 10 19 25 26 33 40 45 45 44 38 34 30 31 33 35 37 40 41 41 44 42 32 26 26 26 26 25 24 22 22 20 18 19
5 6 6 8 5 4 5 3 4 6 4 7 9 3 7 8 5 6 14 23 32 39 44 44 42 41 36 32 31 32 33 30 31 32 34 37 38 40 40 39 38 31 29 26 25 26 25 24 23 22 22 22 23 22
4 11 11 4 4 3 6 7 8 7 6 13 8 4 7 16 30 34 38 41 41 42 41 36 29 25 26 26 27 26 25 24 24 28 32 35 34 32 24 26 27 24 23 22 21 23 23 23 23 23 22 21 21 21
6 12 5 5 5 5 6 11 6 9 10 15 16 18 27 36 39 37 39 39 31 28 22 23 26 26 28 29 30 31 29 26 23 22 26 28 27 20 15 17 17 18 19 20 20 21 21 21 19 19 16 15 15 16
14 8 4 4 4 3 8 10 13 15 18 21 23 25 32 35 37 33 28 22 19 17 20 22 23 28 32 30 33 35 37 30 27 24 22 23 21 18 16 18 19 21 22 22 22 21 19 19 17 16 16 15 15 14
7 7 5 2 2 2 4 4 4 5 6 9 10 14 17 15 12 14 13 17 20 18 20 31 38 37 31 26 23 22 26 30 29 25 23 25 27 25 23 21 22 22 21 20 19 18 18 17 16 15 15 15 15 14
5 5 4 1 2 1 1 2 3 5 5 5 5 6 8 6 8 6 9 13 14 21 32 38 30 22 21 21 21 21 21 21 20 16 12 10 11 15 14 14 14 15 15 15 14 13 11 11 11 10 11 11 11 12

GFSWCAN_850_spd_057.txt.gz
Wind_Speed
43 44 35 44 37 33 27 26 20 17 14 12 10 10 8 6 7 7 8 9 9 9 11 10 10 5 4 4 2 5 1 5 3 2 2 1 1 1 2 1 3 5 5 3 2 2 4 3 2 3 6 16 20 23
45 45 45 43 37 34 31 27 22 19 16 13 12 11 9 7 8 7 13 16 17 12 15 14 12 9 9 4 1 3 3 1 1 1 2 1 1 1 2 1 3 1 3 3 6 5 2 5 6 5 13 21 24 28
42 55 50 44 42 36 31 27 23 21 17 15 15 12 10 8 10 8 19 27 31 25 19 10 9 9 5 3 2 1 3 0 1 2 3 1 1 1 1 1 2 1 1 2 2 2 8 15 3 18 29 30 31 28
40 56 50 45 41 37 33 29 25 23 19 16 16 13 11 11 12 11 20 14 11 10 7 5 8 9 8 7 3 1 2 3 2 2 3 2 1 4 1 1 1 2 6 4 5 6 23 1 26 38 38 36 33 29
41 53 53 48 43 40 35 30 26 23 21 18 17 15 12 14 14 13 14 12 8 4 7 7 9 8 7 6 4 4 2 2 2 3 3 1 1 2 2 2 1 5 3 3 4 13 11 21 30 35 34 32 29 30
56 59 53 48 44 39 36 31 28 25 21 19 17 15 16 18 17 7 6 11 17 15 7 3 4 5 8 7 6 5 7 6 3 2 1 2 2 3 2 1 1 4 15 14 9 23 28 29 23 20 21 36 36 34
66 58 53 48 44 42 37 33 30 26 22 20 19 18 18 17 10 4 5 11 10 9 5 5 2 2 9 5 4 4 3 4 3 3 2 1 1 3 1 2 5 21 23 22 20 16 18 15 27 35 30 31 29 30
64 60 55 48 47 43 39 34 32 27 25 25 24 21 20 18 15 14 16 14 11 7 5 3 2 2 8 4 2 3 2 2 4 3 1 1 1 1 2 7 16 20 23 15 18 23 25 26 27 29 31 31 29 25
67 61 55 54 48 45 40 37 34 30 32 31 32 26 17 8 5 15 22 20 15 7 6 5 3 3 6 4 2 2 2 3 2 2 1 1 1 1 4 15 20 21 16 23 25 25 21 22 28 29 30 24 22 21
65 61 59 53 50 46 42 40 37 36 36 35 27 5 6 9 19 11 5 4 4 6 5 5 2 1 3 4 3 1 1 1 1 1 3 2 3 9 7 9 13 16 18 20 23 22 27 27 30 31 29 20 18 16
68 62 56 55 52 47 45 42 40 42 38 24 7 4 21 17 4 3 4 5 3 4 3 4 3 0 1 2 1 1 0 1 2 3 3 3 3 6 5 9 12 14 16 17 16 19 20 19 23 24 21 15 12 11
69 63 59 56 52 47 48 42 45 47 26 10 11 20 12 4 3 5 1 3 3 3 3 4 3 2 2 0 0 1 1 0 3 8 2 2 3 9 9 13 14 16 18 17 16 18 19 17 17 18 16 13 9 8
66 61 59 56 50 49 44 43 44 26 20 23 5 5 3 2 7 5 3 3 1 6 6 4 1 2 3 1 1 1 2 3 9 2 4 4 6 3 11 18 21 19 18 18 17 16 16 15 15 15 15 12 12 10
62 59 55 52 50 46 41 45 32 25 14 5 6 4 3 2 1 3 4 5 6 8 7 4 4 2 2 2 2 1 3 1 2 2 4 3 3 13 18 19 20 22 20 19 18 16 15 14 14 14 14 12 10 11
59 55 52 48 46 40 43 41 29 14 4 3 3 3 2 5 6 11 15 10 8 9 5 5 4 1 1 1 2 1 2 4 5 4 3 1 12 20 23 24 24 25 24 22 21 18 16 14 14 13 14 14 11 12
59 51 46 45 39 40 47 31 25 5 4 4 5 6 7 7 3 7 11 11 10 8 7 4 3 3 2 1 2 5 3 4 4 3 7 14 21 23 24 24 24 24 23 24 22 18 17 17 14 13 11 11 9 9
57 46 47 43 40 41 35 26 8 3 4 4 3 13 8 11 13 12 12 10 11 7 2 4 3 6 2 2 3 3 4 3 6 17 23 22 23 27 27 22 23 24 25 25 20 16 19 18 14 11 10 9 13 15
51 54 49 45 43 39 30 7 5 4 5 5 6 11 8 14 19 15 11 14 9 7 7 3 6 2 4 5 3 4 8 11 16 21 25 28 27 28 23 18 19 21 23 23 22 19 19 19 16 16 15 11 9 7
61 55 49 48 41 19 7 4 4 5 4 6 15 14 12 16 14 13 13 15 9 7 5 5 3 3 3 8 7 11 16 21 25 27 28 31 28 22 15 15 16 19 21 22 22 21 19 17 16 15 13 14 8 5
55 50 50 34 19 6 6 6 5 6 5 6 10 10 10 8 12 12 12 13 10 5 3 3 5 7 8 14 18 20 22 25 26 30 33 33 29 25 16 14 17 19 21 20 19 20 21 18 13 12 12 12 15 6
51 47 29 20 13 7 7 5 6 6 9 6 13 8 5 11 7 9 9 11 8 6 7 13 15 17 17 17 18 20 22 23 26 26 30 35 31 25 18 13 13 16 19 21 23 22 20 20 18 14 12 13 11 14
45 35 21 11 6 6 7 6 8 9 5 8 9 5 5 4 4 6 6 7 7 11 13 18 20 18 16 16 8 7 14 20 24 26 28 28 31 23 14 10 11 17 18 21 23 25 25 20 18 17 14 14 12 11
40 23 8 6 6 6 5 5 4 4 4 3 5 3 2 2 3 6 4 8 10 15 15 16 17 16 16 10 5 7 15 22 28 28 32 27 22 17 13 10 8 14 23 27 29 32 27 22 19 17 15 13 14 12
22 6 5 5 7 4 4 5 5 5 4 3 3 2 1 2 2 1 3 7 14 16 14 12 13 15 14 17 17 19 17 26 35 36 31 29 23 21 17 16 18 20 23 29 33 34 30 24 20 17 15 14 12 11
7 6 4 5 4 5 4 3 3 4 3 1 3 0 1 1 2 1 3 5 4 6 7 10 12 14 18 24 29 32 31 31 36 42 38 27 26 32 31 26 27 30 33 36 36 36 33 28 24 21 19 18 16 12
7 3 3 4 3 4 4 4 4 4 3 3 2 3 2 3 1 5 4 7 6 4 5 10 16 20 26 29 34 38 41 41 38 36 38 30 28 28 31 32 34 38 38 38 36 36 33 29 26 24 22 18 17 16
5 2 3 5 8 11 7 6 5 4 3 5 3 3 3 1 5 5 7 8 4 10 23 27 30 30 33 34 33 32 30 28 27 29 30 31 30 29 29 32 33 38 37 36 33 31 29 28 26 23 21 18 15 15
5 5 6 7 7 4 5 3 4 5 4 8 11 4 7 8 5 4 2 13 28 37 37 35 30 23 21 22 23 26 29 28 26 26 28 29 28 24 22 25 25 25 27 29 27 26 26 24 22 21 20 20 18 16
4 13 10 5 5 3 3 5 8 7 10 13 7 4 6 9 18 24 31 35 34 30 25 22 17 17 20 21 26 29 29 29 29 30 31 31 30 25 16 16 16 15 16 17 17 16 17 18 19 19 19 18 16 15
6 8 6 4 4 4 3 7 6 6 10 11 9 11 20 28 30 30 31 23 17 14 16 16 19 25 32 40 42 35 26 22 16 17 23 29 32 30 24 20 18 18 17 16 16 16 16 17 18 18 17 16 15 14
10 4 4 3 2 3 6 9 8 7 8 10 15 20 28 29 30 18 15 11 12 15 17 19 25 31 38 35 29 28 27 22 24 23 23 25 27 26 23 19 16 16 17 17 18 19 19 19 18 17 15 14 13 12
4 3 6 3 3 5 4 4 3 4 4 6 6 10 10 7 6 6 5 8 11 13 20 29 35 35 29 25 24 24 25 25 24 24 21 17 20 18 13 13 16 17 18 18 18 17 18 18 17 15 13 12 12 12
4 5 5 4 3 3 3 3 2 2 4 3 3 3 4 4 6 4 7 9 12 18 29 34 34 29 24 23 23 23 22 22 21 19 16 13 12 18 15 11 9 10 11 12 12 12 11 10 9 8 7 8 9 9

GFSWCAN_850_spd_060.txt.gz
Wind_Speed
33 22 27 43 49 48 37 33 30 25 21 17 15 13 14 13 10 8 15 14 10 9 8 8 6 4 4 2 2 1 2 2 3 2 1 1 1 2 1 1 1 3 2 2 2 4 3 11 2 4 4 9 13 17
33 20 50 49 45 43 36 36 31 26 22 20 18 16 16 13 12 13 21 17 26 12 14 15 12 10 8 4 5 4 2 2 2 1 1 1 2 3 3 3 2 2 2 2 3 2 5 9 2 5 9 15 16 20
30 21 41 53 50 43 38 35 31 27 24 22 20 19 18 16 16 21 27 28 37 26 18 6 9 10 8 7 5 3 2 3 1 3 1 2 3 2 3 3 3 3 4 2 4 4 8 9 7 7 17 18 20 19
28 19 56 56 52 45 39 35 32 29 26 25 22 22 20 18 23 27 39 13 12 11 7 4 7 9 9 7 5 5 8 6 4 3 2 2 2 3 2 2 3 3 4 4 5 6 17 3 12 24 27 23 19 18
23 15 62 55 50 46 41 36 34 31 28 27 25 23 22 20 29 31 13 13 11 4 6 8 11 9 7 6 6 4 6 4 2 2 3 2 2 1 2 1 1 1 1 2 3 4 13 23 23 26 24 23 25 26
15 5 60 56 50 45 43 39 36 32 30 28 27 25 25 25 27 22 6 6 14 25 8 4 6 7 8 9 9 9 7 4 3 3 3 2 0 2 1 2 4 4 3 7 8 12 20 25 25 20 20 32 32 30
20 15 62 54 51 45 43 39 37 33 31 29 27 27 27 29 21 5 8 17 15 8 5 6 4 4 6 6 7 6 5 5 3 2 1 2 2 1 2 3 8 6 9 13 14 12 16 12 15 22 20 24 25 28
12 53 61 55 48 47 44 41 37 34 32 30 27 27 25 15 8 11 19 17 13 6 4 4 3 3 3 3 2 3 2 2 3 1 1 1 0 1 3 7 6 9 10 10 8 14 20 23 21 21 21 21 22 20
5 60 61 56 53 49 45 41 38 36 36 33 31 27 24 16 7 13 16 12 9 4 6 4 3 3 3 3 2 2 1 2 1 1 1 1 2 4 5 7 9 10 9 13 15 16 15 15 20 20 20 20 19 20
22 66 60 57 52 49 45 43 40 40 39 38 37 10 8 10 26 17 4 2 3 5 5 5 4 3 4 2 2 3 0 1 1 2 2 2 3 10 9 9 12 13 13 14 16 13 14 20 20 21 21 19 17 17
58 67 62 56 53 49 47 44 45 45 44 29 7 6 22 23 7 2 2 3 2 4 4 4 3 4 3 2 2 2 2 1 1 2 2 2 3 4 6 7 12 16 19 19 18 19 20 21 23 22 20 17 17 15
75 68 61 57 54 51 48 48 50 52 26 12 13 27 18 5 3 4 1 1 2 3 3 4 4 4 4 3 1 2 2 2 1 5 2 3 2 5 2 11 15 18 18 21 20 22 22 20 21 22 22 19 16 13
73 69 63 59 55 52 49 50 50 27 31 30 8 6 5 2 4 5 4 1 2 6 7 6 4 4 3 3 3 2 2 2 7 3 3 3 3 1 9 16 20 18 19 21 22 22 22 22 20 20 22 20 17 15
75 70 63 60 55 52 51 55 42 34 11 4 6 4 2 3 2 2 3 5 6 11 14 11 7 3 3 2 2 3 2 3 3 4 4 2 1 9 16 20 22 25 25 25 25 24 24 22 20 20 21 21 19 18
74 67 61 57 54 52 52 51 34 19 4 3 4 4 2 5 5 11 17 14 12 15 12 10 7 3 2 2 2 1 3 4 4 3 0 3 12 18 20 22 25 26 25 26 25 25 24 19 20 22 20 20 19 15
71 63 60 56 53 51 56 39 28 7 4 3 5 7 7 8 3 6 14 16 15 13 10 6 4 3 2 2 3 5 3 5 1 2 7 17 20 21 23 25 27 26 23 23 23 23 22 18 20 21 21 18 17 18
70 52 61 55 53 54 45 32 7 4 4 3 5 13 9 14 13 11 14 14 15 7 2 3 3 2 4 1 3 3 4 2 4 11 13 18 22 25 25 26 27 20 19 20 21 22 23 20 19 20 21 19 17 18
56 64 59 57 60 50 35 6 5 4 6 8 7 10 10 15 19 14 11 19 8 5 6 2 7 3 3 4 3 4 10 9 11 14 19 25 28 28 25 24 23 19 19 20 22 22 23 22 19 18 18 17 18 19
69 63 57 58 59 31 8 5 2 6 7 7 13 14 13 17 12 12 16 15 9 7 7 5 2 3 3 7 7 6 8 12 18 22 25 26 25 22 24 22 21 18 18 17 18 21 22 21 19 17 18 18 18 19
60 56 58 56 28 6 6 6 5 9 5 6 9 11 11 9 13 13 16 12 10 5 2 2 5 6 7 7 6 11 15 16 18 19 22 24 26 25 24 22 20 16 14 12 16 20 22 23 20 19 18 19 18 17
62 60 48 23 11 7 7 5 9 8 10 7 15 7 7 12 8 6 6 9 5 4 5 11 14 11 9 11 13 15 15 8 9 11 17 25 29 31 31 23 16 13 11 9 14 23 26 25 24 21 19 18 18 16
54 39 23 10 6 6 11 10 10 10 5 10 7 5 7 4 4 5 5 6 6 8 9 11 14 12 11 13 14 15 10 9 12 15 18 22 30 35 35 29 19 16 16 11 14 21 25 27 28 25 21 18 16 16
35 18 8 7 8 9 6 5 4 4 4 4 5 4 3 2 2 5 2 6 7 6 6 10 11 11 13 14 14 15 17 19 23 25 27 29 36 39 35 30 23 20 16 15 17 21 22 27 28 29 24 20 17 15
23 6 7 7 7 4 5 5 5 6 5 3 3 3 1 2 2 1 3 4 4 2 1 4 7 9 10 12 14 17 19 26 30 35 37 36 39 43 39 33 25 26 27 26 23 24 26 29 31 30 26 22 19 17
9 8 5 5 5 5 4 3 2 3 3 1 3 1 2 2 1 1 2 4 3 3 1 3 8 12 18 24 27 29 28 29 32 35 34 33 34 33 33 30 30 28 26 31 35 33 29 29 31 30 27 22 20 18
8 7 5 3 3 4 4 4 3 4 3 3 2 3 2 2 1 4 4 3 4 4 1 10 18 24 26 26 30 32 30 26 26 29 31 30 31 31 32 33 34 33 27 27 25 26 29 31 30 29 25 20 19 18
5 3 4 5 8 11 7 7 5 3 3 5 4 4 2 2 4 4 4 4 3 3 17 27 28 27 27 26 23 22 22 23 26 31 34 33 30 28 27 28 31 31 27 26 27 27 28 29 28 25 22 18 16 17
6 5 6 8 7 4 5 3 4 5 4 8 11 4 8 7 4 3 4 3 16 24 26 21 18 18 16 17 22 28 31 35 33 30 28 25 20 19 19 19 22 24 21 22 25 24 24 24 21 19 17 16 15 16
5 12 9 5 5 4 3 4 4 4 10 14 6 3 5 6 4 6 16 22 25 19 12 13 15 17 20 24 28 33 30 25 23 22 22 25 26 26 24 24 25 24 20 19 16 13 11 11 11 13 13 14 15 14
5 5 6 3 3 1 2 4 6 11 9 9 5 4 8 14 17 20 24 17 9 8 11 16 19 24 30 34 32 24 19 18 14 18 23 25 26 24 25 25 22 15 14 16 16 14 14 14 13 14 15 15 14 13
8 4 6 5 4 3 9 11 10 8 6 5 8 11 17 18 20 13 6 5 6 10 13 16 23 30 33 30 25 24 21 18 17 17 19 21 18 18 23 27 21 14 13 14 15 14 13 14 15 14 13 12 12 11
4 4 6 4 3 7 9 5 4 2 1 2 4 5 5 5 5 4 5 6 11 11 14 23 28 31 29 22 21 22 21 22 22 21 18 16 15 22 21 24 17 12 10 11 11 12 12 12 12 11 11 10 9 9
5 7 8 7 4 3 4 4 3 1 1 1 2 3 3 3 5 4 7 10 10 11 20 24 29 29 22 20 21 20 21 20 20 18 16 10 7 14 18 17 15 11 7 6 6 6 6 6 6 5 5 4 4 5

GFSWCAN_850_spd_063.txt.gz
Wind_Speed
37 38 47 34 17 19 52 44 32 30 30 25 21 20 20 18 17 18 20 17 11 8 8 5 4 4 3 1 4 4 3 2 2 4 1 1 2 2 3 4 1 4 3 3 3 3 6 6 3 4 3 3 10 12
37 37 46 30 19 39 55 43 35 34 30 26 23 21 21 19 16 17 20 17 20 12 10 11 11 7 5 3 2 1 3 4 3 1 1 1 1 1 2 2 1 2 4 3 3 2 5 4 4 3 4 11 14 18
36 34 40 26 3 46 51 41 38 33 29 27 23 23 21 18 18 21 25 25 30 18 15 6 6 7 5 5 5 1 2 3 3 3 2 2 2 3 3 2 2 3 1 3 4 5 2 8 3 4 11 15 18 17
35 34 39 23 13 27 45 40 38 34 29 28 25 25 22 20 22 28 33 25 17 12 6 5 6 6 6 4 4 5 8 8 7 3 2 1 2 3 2 4 4 1 2 1 6 9 11 3 6 13 18 19 19 18
36 32 34 24 22 46 45 40 36 33 32 29 27 26 24 27 30 34 19 19 12 7 7 8 7 6 5 5 5 6 6 6 4 3 1 1 1 2 1 1 4 1 1 2 3 8 12 15 15 22 25 22 18 22
34 29 23 4 42 52 46 42 38 35 33 30 29 28 29 34 37 21 7 3 12 30 9 4 4 4 7 7 9 7 6 4 3 2 3 2 1 3 2 2 2 6 1 4 5 13 18 24 23 20 18 22 24 26
30 28 11 17 52 47 44 41 38 37 34 32 30 29 33 40 27 4 7 18 16 8 6 6 4 1 5 3 4 5 6 4 3 2 1 1 1 1 2 3 8 9 6 10 12 13 12 5 14 25 24 26 27 27
27 25 19 10 50 46 45 42 40 38 36 34 33 32 35 31 14 7 21 26 10 6 5 4 3 4 4 2 2 2 2 2 3 1 2 2 2 3 4 7 5 3 5 9 8 9 18 24 22 21 22 26 26 26
19 19 21 24 57 49 45 42 40 39 37 36 35 34 25 14 6 16 20 13 6 3 4 3 4 3 5 3 2 2 1 1 1 1 1 2 3 5 6 5 1 4 5 9 10 13 16 16 22 25 25 27 24 25
17 11 35 59 53 50 47 44 41 40 38 38 36 13 7 10 27 22 8 4 2 3 3 4 3 3 4 4 2 3 1 1 2 2 3 3 4 8 4 3 2 4 7 9 13 13 16 21 19 23 25 26 24 24
28 5 59 57 54 51 48 46 44 41 44 33 10 6 25 30 8 4 3 2 2 3 3 4 3 5 2 2 2 1 2 1 2 3 2 2 3 3 8 5 4 6 9 11 14 17 18 20 25 25 26 24 24 25
25 34 59 58 56 52 50 49 47 48 26 15 15 32 21 5 3 3 1 1 2 3 5 5 5 5 4 4 2 3 2 2 2 4 2 3 1 7 6 6 10 12 13 15 14 17 21 21 22 25 25 27 26 24
26 52 60 59 56 52 50 47 49 36 30 41 16 7 5 3 2 6 6 2 4 8 7 7 4 5 4 3 3 2 4 2 4 2 3 1 7 5 5 12 15 17 18 20 22 23 24 25 25 25 24 24 25 23
43 68 62 60 54 51 48 50 41 40 25 6 6 5 3 4 4 1 2 5 6 11 15 11 7 3 3 2 3 3 2 3 2 3 3 3 2 7 10 12 16 22 23 25 24 24 24 26 27 25 23 23 26 26
71 64 63 58 53 49 49 48 41 27 4 4 5 4 3 4 4 7 14 13 12 14 13 10 6 3 2 2 2 1 3 3 4 2 2 0 10 13 16 18 20 23 24 25 21 22 23 25 27 28 24 24 26 27
71 66 63 59 53 49 52 42 23 8 4 3 5 6 9 9 4 6 12 13 16 13 10 5 4 3 2 1 3 4 3 5 1 1 2 9 15 19 20 20 21 21 22 20 19 21 24 25 26 29 28 26 26 24
75 50 65 58 53 53 46 32 7 5 4 3 4 10 9 13 6 11 12 11 18 7 2 3 3 2 4 2 2 3 3 1 3 5 9 14 19 19 19 20 20 22 23 20 20 21 21 22 23 26 27 24 20 21
47 67 65 59 56 52 30 6 5 5 5 4 5 8 6 13 18 15 13 20 8 5 5 2 6 3 3 3 2 3 6 7 10 11 14 17 17 18 20 21 22 23 24 21 19 19 18 21 25 26 26 25 23 21
71 70 62 58 55 34 10 4 4 6 5 7 13 12 13 16 15 15 19 11 9 8 10 4 2 2 2 5 4 5 8 9 8 11 14 11 13 17 20 23 25 25 23 20 16 12 12 19 24 26 26 26 26 22
70 63 58 52 37 16 6 6 6 6 5 5 8 9 12 9 13 17 14 12 10 5 2 2 3 4 4 3 3 8 11 12 13 11 8 9 14 19 23 26 28 29 25 20 15 13 10 13 18 27 28 26 24 22
67 58 50 40 18 8 8 7 6 6 9 7 13 8 8 11 8 6 5 7 2 2 3 6 7 6 6 8 11 13 14 16 14 13 16 19 21 25 30 29 31 33 30 24 21 21 17 18 19 30 29 28 26 24
55 51 37 23 7 7 9 7 10 9 6 9 7 6 6 4 3 4 5 3 4 5 6 3 4 6 7 9 11 13 15 14 15 19 23 26 30 32 35 36 37 39 33 28 26 27 25 23 21 20 25 27 27 25
50 38 23 6 8 9 6 5 4 5 4 4 5 4 3 2 3 6 2 4 5 5 5 5 5 6 7 8 9 11 13 16 20 25 29 31 33 37 39 37 32 32 33 28 23 25 24 21 23 25 27 26 27 27
37 10 6 6 7 5 6 4 6 6 6 2 2 4 2 2 3 1 2 3 5 4 5 4 1 3 7 13 19 24 24 23 25 29 31 34 34 31 28 31 32 30 27 27 26 25 27 30 30 29 29 28 27 26
14 9 5 5 5 6 5 3 2 2 3 2 3 2 2 2 2 2 2 3 7 9 7 4 1 7 17 26 28 27 27 24 24 26 25 26 30 33 34 36 36 32 28 26 24 23 23 20 20 22 25 27 27 24
7 7 5 3 2 5 2 4 3 4 4 3 3 4 2 2 1 4 3 5 8 8 7 4 13 22 26 23 24 24 23 22 25 28 31 31 35 35 36 36 36 34 24 23 25 27 23 22 25 26 25 24 22 20
5 3 5 7 9 11 6 7 5 3 4 4 4 4 3 2 4 3 4 6 6 6 7 17 21 19 17 18 19 21 24 28 31 35 36 34 28 24 22 23 25 26 27 25 23 23 23 22 23 23 22 22 18 16
5 5 6 8 6 5 5 3 3 3 3 7 11 4 8 7 4 3 5 11 3 13 17 15 11 12 15 18 24 31 36 36 32 28 25 20 18 21 20 20 23 25 29 30 26 22 19 18 18 16 15 15 12 13
6 11 9 5 7 6 4 2 3 3 8 15 4 3 5 5 6 6 4 10 14 16 9 7 10 14 18 22 29 35 33 29 29 27 25 26 27 23 21 20 22 24 25 23 17 18 16 15 11 10 11 11 12 13
4 5 6 4 4 3 2 3 6 12 9 10 4 3 2 2 4 8 12 11 6 3 6 10 14 20 26 31 37 34 25 24 23 22 25 28 29 25 21 22 24 25 21 17 13 10 11 14 13 12 12 13 13 13
6 5 6 7 4 3 9 13 13 9 8 5 3 1 3 4 6 6 3 2 2 6 9 12 18 24 29 33 34 30 27 23 23 23 23 25 23 17 17 21 26 25 20 14 11 10 10 12 13 12 12 12 12 12
4 5 5 4 3 8 10 4 4 3 3 2 0 0 2 2 3 2 2 3 7 10 12 16 22 26 30 32 26 24 24 25 24 22 21 19 15 13 18 20 23 22 17 12 9 8 8 8 8 9 9 9 8 8
7 9 9 8 5 4 4 4 2 2 2 2 1 2 0 2 3 3 4 7 9 10 12 19 23 28 31 25 22 21 22 21 20 19 18 16 12 13 14 16 20 19 12 10 9 7 6 5 5 4 4 4 5 5

GFSWCAN_850_spd_066.txt.gz
Wind_Speed
35 33 34 34 38 40 29 7 21 31 32 28 23 20 20 21 24 22 23 18 14 9 9 6 7 7 3 3 1 3 4 1 1 2 1 2 2 0 1 0 2 5 4 3 1 1 4 8 1 3 3 5 8 10
36 32 31 32 33 39 21 20 30 32 32 27 21 17 20 22 22 20 26 20 15 11 10 12 12 9 8 6 4 3 3 7 3 1 1 1 1 1 1 2 2 2 2 1 2 3 6 5 6 6 6 8 11 16
34 29 30 29 33 25 16 23 36 33 30 26 22 19 21 22 22 20 25 23 21 23 18 5 8 8 6 5 7 3 2 4 1 2 3 1 1 0 1 2 2 3 4 1 3 1 3 3 2 7 13 15 18 18
35 31 28 28 29 23 16 27 32 30 30 26 22 19 22 20 19 20 29 26 18 13 6 5 5 6 6 5 5 5 5 5 7 5 1 2 1 2 3 1 0 1 2 0 3 7 7 14 12 17 23 21 20 18
33 30 26 28 25 24 5 28 33 30 29 26 24 23 20 21 23 27 27 20 17 6 6 9 10 10 8 7 7 9 9 6 2 1 1 1 2 1 2 0 3 6 1 1 2 7 2 4 15 19 16 20 25 25
31 28 25 26 20 14 3 40 35 32 29 28 26 24 22 30 29 27 9 5 9 32 9 3 5 6 9 10 9 7 7 4 2 2 3 3 1 1 0 2 5 7 5 2 0 9 10 12 7 5 20 18 22 22
29 25 26 24 19 19 31 38 36 33 30 28 27 27 34 30 21 5 8 22 13 9 7 6 4 2 5 7 6 7 4 2 2 2 1 2 2 1 1 2 10 9 4 2 4 8 4 6 13 21 18 20 23 23
27 23 24 15 17 39 43 40 36 34 31 30 29 33 38 19 9 16 31 16 10 9 6 3 2 3 4 2 3 3 2 2 2 1 2 1 2 1 3 6 9 5 1 1 2 6 8 14 16 18 20 22 24 23
24 23 20 9 37 41 43 40 37 33 30 30 30 33 31 9 4 19 17 10 8 6 6 3 4 3 6 3 2 1 0 1 0 1 1 2 2 3 5 5 11 4 2 3 8 10 13 16 20 21 21 24 23 24
25 22 16 19 31 41 41 41 38 33 32 34 35 15 6 7 27 19 4 2 3 4 4 4 5 3 5 4 2 2 2 1 1 0 3 1 3 5 8 10 7 4 4 6 10 14 17 19 21 25 27 27 26 25
26 20 18 23 25 46 46 44 39 37 40 30 10 5 25 29 8 3 4 3 2 3 4 4 5 5 4 2 2 1 1 0 1 1 0 2 1 8 14 10 6 6 6 7 9 12 15 18 21 24 27 29 30 30
23 23 20 32 43 52 50 45 42 46 27 14 10 28 22 5 3 5 1 1 1 3 5 6 5 7 5 4 3 2 1 1 1 1 1 2 2 8 8 7 9 11 12 13 14 17 19 20 21 24 26 28 29 28
25 26 24 50 54 53 50 43 44 37 22 36 12 7 5 2 4 5 6 1 2 7 8 8 4 5 5 3 4 2 2 1 3 1 2 1 9 4 6 10 12 14 16 17 18 20 19 20 21 23 27 28 28 26
25 33 62 53 56 53 46 46 45 32 22 5 7 4 3 2 3 2 3 4 6 15 22 18 8 4 4 3 3 3 2 3 2 2 4 2 6 4 8 11 16 19 20 21 23 23 20 20 23 26 27 28 28 28
33 43 60 58 56 51 49 48 37 23 4 3 3 4 2 6 6 10 15 14 17 23 18 13 8 6 2 3 1 2 2 3 4 3 1 5 4 9 13 16 18 19 19 20 21 20 19 21 24 26 25 25 26 26
31 56 58 59 55 50 51 43 26 5 3 3 5 5 8 7 3 7 17 20 25 19 12 5 3 3 2 3 3 4 4 4 3 2 5 4 8 12 14 15 16 17 19 21 22 21 21 21 22 24 24 23 24 25
67 44 61 59 52 52 43 32 11 3 4 4 5 13 6 17 12 9 15 17 22 7 2 3 4 2 3 2 1 3 4 3 6 4 5 8 12 12 10 12 14 17 21 23 24 22 19 18 16 17 21 25 26 24
48 61 64 57 54 49 32 12 5 4 6 6 4 6 14 15 20 14 15 22 6 5 5 3 8 3 4 4 3 3 8 7 8 9 10 12 11 7 8 13 17 19 21 24 25 23 20 13 12 13 18 26 31 32
66 71 64 57 59 32 10 5 4 6 6 7 12 14 14 17 16 18 20 10 12 12 12 4 4 2 3 4 4 4 7 8 9 10 14 15 12 10 12 17 21 25 27 28 28 27 22 18 17 14 15 28 30 28
69 66 60 59 36 12 6 7 7 8 5 5 10 10 11 11 17 15 13 15 12 4 4 2 3 3 2 2 1 4 6 9 11 16 19 16 14 17 21 23 26 28 33 36 35 28 24 24 23 21 21 27 25 25
69 61 62 42 9 7 8 6 7 7 10 8 14 8 10 12 7 5 6 8 3 3 3 3 4 2 2 4 7 7 9 11 14 16 20 21 21 25 29 30 30 32 33 29 27 29 25 26 27 24 24 24 23 24
55 61 43 21 6 6 9 7 10 11 7 10 8 7 7 3 3 3 4 2 2 3 4 5 4 3 3 5 6 8 10 12 16 20 21 23 27 30 31 31 32 29 25 26 29 27 26 25 23 23 26 23 25 27
56 44 21 6 7 7 6 5 5 5 4 5 7 5 3 3 3 5 1 2 3 4 7 6 3 1 3 3 7 14 17 19 22 24 26 27 27 27 26 25 25 27 29 30 28 25 24 24 23 22 25 27 27 29
46 13 5 5 6 5 6 3 5 6 6 3 3 4 2 2 4 0 1 2 3 8 9 9 7 3 2 7 18 21 19 20 21 24 23 26 29 30 29 29 30 30 28 28 27 25 23 23 22 21 22 23 22 23
11 5 3 6 5 6 4 3 3 4 4 2 3 2 1 3 2 1 2 2 7 10 12 9 6 5 10 18 21 19 18 19 22 26 30 32 33 33 32 32 30 26 23 22 23 23 24 25 25 22 22 22 23 24
6 4 4 3 3 4 2 5 3 4 4 3 3 5 3 2 3 4 3 3 8 12 9 8 6 12 18 16 16 17 18 22 27 32 35 29 27 26 25 23 23 21 21 22 24 27 27 25 22 22 22 21 20 20
4 4 6 8 10 13 8 10 7 4 4 5 4 4 3 3 4 3 4 7 9 8 7 6 13 17 14 13 15 18 23 28 30 30 27 23 17 13 18 19 20 23 24 25 27 26 26 25 22 21 22 19 16 15
6 4 6 6 7 7 6 3 3 3 3 7 11 3 8 7 4 5 6 11 10 6 9 14 10 7 10 14 20 25 29 31 29 23 19 17 17 18 18 20 19 19 23 25 26 25 23 18 14 15 15 14 12 10
6 8 9 6 8 10 6 3 4 4 8 12 4 3 4 4 9 10 13 10 9 13 12 5 6 10 13 18 23 29 31 29 27 25 26 27 26 23 22 19 17 20 23 25 20 16 14 11 11 14 16 16 13 12
4 4 6 5 5 3 3 4 7 12 11 8 8 8 9 10 10 6 7 9 7 3 3 6 9 13 19 24 28 30 26 23 22 25 27 27 27 25 20 19 22 23 27 27 22 15 10 10 10 10 12 13 14 14
6 5 8 8 5 4 11 16 15 14 9 9 11 9 6 4 4 5 3 2 2 3 6 8 11 17 22 27 31 30 23 22 23 22 22 23 22 19 17 21 20 23 27 25 19 15 13 11 11 10 11 11 12 11
5 6 7 4 3 9 9 4 4 4 4 3 4 4 3 2 2 3 4 3 2 6 8 10 14 19 23 29 28 24 24 23 22 21 21 20 19 15 21 22 20 22 24 19 17 14 12 11 10 9 9 9 9 8
9 13 12 9 5 3 4 5 4 4 4 3 2 1 2 1 3 4 3 2 4 7 8 11 16 20 25 28 23 21 21 19 20 20 20 19 18 15 17 17 18 20 19 15 14 13 11 10 9 8 7 7 7 7

GFSWCAN_850_spd_069.txt.gz
Wind_Speed
35 35 35 35 32 32 34 35 17 4 25 23 25 22 22 23 29 25 16 11 10 9 13 7 7 5 6 5 4 5 4 2 2 1 2 1 2 2 2 4 6 5 4 3 2 1 3 8 3 1 4 9 8 9
34 35 33 33 30 29 33 23 6 14 24 25 24 21 17 19 23 23 19 12 9 12 12 13 14 10 9 8 11 4 3 2 3 3 1 2 1 2 3 3 1 2 4 4 4 4 7 7 19 12 9 7 6 10
34 34 32 29 27 27 31 12 4 20 22 23 23 19 15 18 23 20 22 19 15 21 11 7 10 8 6 7 10 5 3 4 4 4 3 2 2 2 2 2 3 1 1 3 4 1 3 22 14 9 7 6 7 7
32 32 30 27 25 23 24 14 5 22 25 22 19 18 16 20 21 15 22 19 15 13 6 6 4 6 6 6 5 6 11 7 8 5 3 2 2 1 2 2 2 4 4 3 2 2 14 9 6 6 6 8 11 10
30 30 27 23 22 20 19 6 11 24 24 19 18 17 15 18 17 18 23 19 17 2 7 9 10 11 8 8 10 11 12 12 5 3 3 1 0 1 2 2 2 5 5 4 4 5 2 1 7 5 8 10 10 12
30 27 23 21 20 16 11 9 30 26 25 19 15 13 17 17 21 24 9 12 6 17 9 3 5 6 9 8 9 10 10 8 5 3 2 2 2 1 1 2 2 5 7 5 6 2 4 4 3 5 15 13 14 15
27 24 20 20 18 13 5 26 27 27 24 19 15 14 23 26 28 7 5 18 21 7 7 5 3 3 6 7 8 8 8 6 4 3 2 1 1 1 1 2 2 9 10 6 3 3 3 2 5 11 12 15 17 20
23 21 20 20 20 12 17 32 26 27 24 20 19 28 26 16 9 12 25 18 10 6 6 4 2 3 3 3 3 4 4 3 4 2 2 1 1 2 2 5 10 10 6 6 4 6 5 9 10 12 16 18 22 22
22 20 21 22 19 17 32 39 29 31 26 21 27 29 14 5 8 14 14 12 9 4 7 4 4 3 5 4 3 3 2 2 1 1 1 1 0 2 4 4 10 6 4 3 5 6 8 12 16 18 20 22 24 28
20 20 19 16 19 32 50 40 38 32 26 24 29 8 4 4 25 15 4 2 2 4 5 4 6 3 6 4 2 2 3 2 1 1 2 1 2 8 12 12 9 6 5 6 10 14 16 18 20 21 22 23 24 26
22 20 17 18 35 52 44 43 38 32 32 34 11 6 12 26 8 2 2 3 2 4 4 5 7 6 4 3 2 1 2 1 2 1 3 2 2 3 6 8 7 5 5 6 8 11 13 17 21 22 23 23 24 26
24 24 21 24 44 39 43 42 39 43 27 16 9 20 19 5 2 4 1 2 3 4 5 6 7 6 6 4 4 2 2 1 2 1 2 2 2 8 5 3 3 5 8 9 11 14 17 18 18 19 21 24 25 26
28 29 27 27 41 39 41 42 41 34 23 23 9 7 5 2 4 5 5 2 2 8 9 10 3 5 5 4 4 2 3 2 4 2 2 2 10 7 1 4 7 9 11 13 13 14 17 19 17 19 23 23 25 27
31 27 30 30 33 45 44 45 46 29 22 6 7 3 4 2 4 3 3 4 6 17 26 21 8 5 4 2 3 4 2 3 2 1 4 3 12 5 4 8 12 13 13 15 17 19 21 21 21 21 20 23 25 27
31 30 25 41 50 52 46 49 39 28 5 3 3 5 3 5 4 9 14 13 14 31 21 15 9 6 2 3 1 2 2 1 4 4 2 12 6 6 9 11 12 13 14 16 17 20 22 21 20 22 21 20 19 21
31 31 36 54 55 54 51 52 30 9 3 2 4 4 8 7 2 7 18 22 30 22 14 7 4 4 1 4 3 4 5 5 3 3 10 7 6 10 12 11 8 9 12 15 18 21 23 23 22 22 18 11 13 21
38 20 56 59 58 54 53 33 16 3 3 3 3 9 6 12 10 12 22 19 22 6 3 5 4 3 3 3 1 3 4 3 6 10 5 6 10 13 12 9 7 10 14 17 20 23 25 25 23 22 18 12 15 22
19 57 65 64 60 54 35 9 6 4 5 6 3 6 8 10 23 20 16 22 5 5 6 4 9 3 4 4 3 3 7 5 6 6 8 10 13 15 14 13 12 14 18 22 25 30 30 28 26 25 24 20 21 22
54 69 68 63 60 38 12 5 3 6 6 7 10 12 13 16 17 20 24 9 9 12 13 4 5 3 3 5 4 7 5 4 4 7 10 13 15 16 17 18 19 22 25 29 29 32 30 26 28 27 26 24 25 24
70 69 66 54 44 20 7 7 6 7 5 5 10 9 10 10 19 17 14 15 12 4 4 3 3 5 5 6 5 3 1 2 6 9 13 15 17 19 20 20 24 29 31 31 30 26 25 28 29 27 24 21 23 25
71 66 56 42 19 7 8 8 6 6 11 8 15 5 9 12 9 7 7 7 2 2 2 3 10 9 6 5 2 2 3 5 8 12 16 22 23 24 25 25 26 27 27 26 27 27 27 30 30 27 26 23 20 19
56 63 46 33 6 6 8 7 11 13 7 11 7 6 8 4 4 4 6 2 2 3 4 9 10 7 6 6 6 6 7 11 13 15 17 19 22 23 23 24 25 27 26 25 26 28 30 29 27 25 25 24 21 21
56 50 29 8 6 4 7 7 4 4 5 5 6 5 3 3 3 6 2 2 3 6 11 11 9 8 10 9 4 9 12 14 15 16 17 19 23 27 30 30 27 27 28 28 26 27 28 26 23 21 22 23 21 20
49 17 7 5 4 5 8 3 5 7 7 3 3 4 1 3 5 2 1 2 4 10 13 11 11 10 7 0 9 13 13 15 17 19 23 28 32 33 27 26 25 23 23 25 23 21 22 23 23 24 24 23 20 20
8 4 5 3 5 6 5 3 3 4 4 2 5 3 2 4 2 1 2 3 9 13 14 13 11 7 3 9 12 11 13 16 20 26 28 29 29 29 27 22 20 20 20 21 25 26 26 25 25 23 20 19 19 19
6 4 3 3 3 5 4 5 4 5 5 4 4 5 3 2 3 4 3 8 12 16 15 11 7 3 8 11 10 13 16 20 24 28 28 27 24 23 22 23 22 21 23 24 25 27 28 27 26 23 17 14 16 16
4 1 3 5 8 12 7 8 7 5 6 4 4 4 3 3 4 3 7 11 14 15 12 7 4 9 8 7 10 14 19 23 26 26 24 20 19 17 20 19 24 23 21 22 24 24 24 23 22 17 11 10 12 14
4 5 6 6 9 6 7 3 5 4 4 8 12 3 8 8 5 8 8 15 15 12 7 4 6 3 6 10 13 18 22 26 24 20 17 16 17 16 14 15 13 15 18 21 23 21 20 18 15 12 10 12 13 12
5 6 9 5 8 10 10 4 3 3 9 10 4 3 5 5 11 13 20 18 12 6 5 1 1 5 9 12 17 22 27 24 21 22 22 20 19 16 13 11 15 17 18 21 18 17 16 14 13 12 13 13 12 12
4 6 8 7 6 4 3 5 8 14 12 9 9 9 9 13 17 18 16 12 7 3 3 1 5 8 11 15 20 24 23 20 20 21 21 21 20 17 15 17 18 18 20 23 20 17 12 11 10 9 10 11 11 11
6 7 11 9 5 4 12 19 18 16 11 9 13 13 12 10 12 12 9 8 8 3 1 4 7 9 14 18 23 24 18 18 18 18 19 18 17 15 14 18 21 20 22 21 17 16 14 13 12 11 10 10 10 10
8 7 7 5 4 11 14 5 4 5 5 4 5 7 8 6 5 9 12 10 5 2 1 5 7 11 16 19 22 18 17 16 15 16 16 16 16 15 16 17 18 17 18 16 15 14 13 12 11 11 11 10 10 9
7 14 16 9 6 5 5 6 4 4 4 3 3 4 3 5 4 7 12 7 4 2 3 5 8 13 16 20 16 14 13 13 14 15 15 15 15 14 13 12 13 15 15 15 14 13 13 12 12 11 11 11 11 10